Time,TemperatureF,DewpointF,PressureIn,WindDirection,WindDirectionDegrees,WindSpeedMPH,WindSpeedGustMPH,Humidity,HourlyPrecipIn,Conditions,Clouds,dailyrainin,SoftwareType,DateUTC
2013-03-24 00:01:00,4.8,-11.4,0.00,SW,231,0.0,0.0,46,0.00,,---,0.00,VWS V14.00,2013-03-24 06:01:00,
2013-03-24 00:02:00,4.8,-11.4,0.00,SW,231,0.0,0.0,46,0.00,,---,0.00,VWS V14.00,2013-03-24 06:02:00,
2013-03-24 00:03:00,4.8,-11.4,0.00,SW,231,0.0,0.0,46,0.00,,---,0.00,VWS V14.00,2013-03-24 06:03:00,
2013-03-24 00:04:00,4.8,-11.4,0.00,SW,231,0.0,0.0,46,0.00,,---,0.00,VWS V14.00,2013-03-24 06:04:00,
2013-03-24 00:06:00,4.6,-11.6,0.00,SW,230,0.0,0.0,46,0.00,,---,0.00,VWS V14.00,2013-03-24 06:06:00,
2013-03-24 00:07:00,4.6,-11.6,0.00,SW,231,0.0,0.0,46,0.00,,---,0.00,VWS V14.00,2013-03-24 06:07:00,
2013-03-24 00:08:00,4.5,-11.7,0.00,SW,231,0.0,0.0,46,0.00,,---,0.00,VWS V14.00,2013-03-24 06:08:00,
2013-03-24 00:09:00,4.5,-11.7,0.00,SW,231,0.0,0.0,46,0.00,,---,0.00,VWS V14.00,2013-03-24 06:09:00,
2013-03-24 00:11:00,4.5,-11.7,0.00,SW,230,0.0,0.0,46,0.00,,---,0.00,VWS V14.00,2013-03-24 06:11:00,
2013-03-24 00:12:00,4.5,-11.7,0.00,SW,231,0.0,0.0,46,0.00,,---,0.00,VWS V14.00,2013-03-24 06:12:00,
2013-03-24 00:13:00,4.3,-11.9,0.00,SW,229,0.0,0.0,46,0.00,,---,0.00,VWS V14.00,2013-03-24 06:13:00,
2013-03-24 00:14:00,4.3,-11.9,0.00,SW,231,0.0,0.0,46,0.00,,---,0.00,VWS V14.00,2013-03-24 06:14:00,
2013-03-24 00:17:00,4.1,-12.1,0.00,SW,231,0.0,0.0,46,0.00,,---,0.00,VWS V14.00,2013-03-24 06:17:00,
2013-03-24 00:18:00,4.1,-12.1,0.00,SW,231,0.0,0.0,46,0.00,,---,0.00,VWS V14.00,2013-03-24 06:18:00,
2013-03-24 00:19:00,3.9,-12.2,0.00,SW,231,0.0,0.0,46,0.00,,---,0.00,VWS V14.00,2013-03-24 06:19:00,
2013-03-24 00:22:00,3.9,-12.2,0.00,SW,231,0.0,0.0,46,0.00,,---,0.00,VWS V14.00,2013-03-24 06:22:00,
2013-03-24 00:23:00,3.7,-12.4,0.00,SW,231,0.0,0.0,46,0.00,,---,0.00,VWS V14.00,2013-03-24 06:23:00,
2013-03-24 00:25:00,3.7,-12.4,0.00,SW,230,0.0,0.0,46,0.00,,---,0.00,VWS V14.00,2013-03-24 06:25:00,
2013-03-24 00:27:00,3.7,-12.4,0.00,SW,231,0.0,0.0,46,0.00,,---,0.00,VWS V14.00,2013-03-24 06:27:00,
2013-03-24 00:28:00,3.7,-12.4,0.00,SW,231,0.0,0.0,46,0.00,,---,0.00,VWS V14.00,2013-03-24 06:28:00,
2013-03-24 00:30:00,3.7,-12.4,0.00,SW,231,0.0,0.0,46,0.00,,---,0.00,VWS V14.00,2013-03-24 06:30:00,
2013-03-24 00:32:00,3.6,-12.6,0.00,SW,231,0.0,0.0,46,0.00,,---,0.00,VWS V14.00,2013-03-24 06:32:00,
2013-03-24 00:33:00,3.6,-12.6,0.00,SW,231,0.0,0.0,46,0.00,,---,0.00,VWS V14.00,2013-03-24 06:33:00,
2013-03-24 00:35:00,3.6,-12.6,0.00,SW,231,0.0,0.0,46,0.00,,---,0.00,VWS V14.00,2013-03-24 06:35:00,
2013-03-24 00:37:00,3.4,-12.7,0.00,SW,231,0.0,0.0,46,0.00,,---,0.00,VWS V14.00,2013-03-24 06:37:00,
2013-03-24 00:38:00,3.4,-12.7,0.00,SW,231,0.0,0.0,46,0.00,,---,0.00,VWS V14.00,2013-03-24 06:38:00,
2013-03-24 00:40:00,3.4,-12.7,0.00,SW,231,0.0,0.0,46,0.00,,---,0.00,VWS V14.00,2013-03-24 06:40:00,
2013-03-24 00:42:00,3.4,-12.7,0.00,SW,222,0.0,0.0,46,0.00,,---,0.00,VWS V14.00,2013-03-24 06:42:00,
2013-03-24 00:43:00,3.4,-12.7,0.00,SW,231,0.0,0.0,46,0.00,,---,0.00,VWS V14.00,2013-03-24 06:43:00,
2013-03-24 00:45:00,3.2,-12.9,0.00,SW,231,0.0,0.0,46,0.00,,---,0.00,VWS V14.00,2013-03-24 06:45:00,
2013-03-24 00:47:00,3.2,-12.9,0.00,SW,231,0.0,0.0,46,0.00,,---,0.00,VWS V14.00,2013-03-24 06:47:00,
2013-03-24 00:48:00,3.2,-12.9,0.00,SW,232,0.0,0.0,46,0.00,,---,0.00,VWS V14.00,2013-03-24 06:48:00,
2013-03-24 00:50:00,3.2,-12.9,0.00,SW,232,0.0,0.0,46,0.00,,---,0.00,VWS V14.00,2013-03-24 06:50:00,
2013-03-24 00:52:00,3.2,-12.9,0.00,SW,231,0.0,0.0,46,0.00,,---,0.00,VWS V14.00,2013-03-24 06:52:00,
2013-03-24 00:53:00,3.2,-12.9,0.00,SW,231,0.0,0.0,46,0.00,,---,0.00,VWS V14.00,2013-03-24 06:53:00,
2013-03-24 00:54:00,3.2,-12.9,0.00,SW,231,0.0,0.0,46,0.00,,---,0.00,VWS V14.00,2013-03-24 06:54:00,
2013-03-24 00:55:00,3.0,-13.1,0.00,SW,232,0.0,0.0,46,0.00,,---,0.00,VWS V14.00,2013-03-24 06:55:00,
2013-03-24 00:57:00,3.0,-13.1,0.00,SW,231,0.0,0.0,46,0.00,,---,0.00,VWS V14.00,2013-03-24 06:57:00,
2013-03-24 00:58:00,3.0,-13.1,0.00,SW,231,0.0,0.0,46,0.00,,---,0.00,VWS V14.00,2013-03-24 06:58:00,
2013-03-24 00:59:00,3.0,-13.1,0.00,SW,230,0.0,0.0,46,0.00,,---,0.00,VWS V14.00,2013-03-24 06:59:00,
2013-03-24 01:00:00,3.0,-13.1,0.00,SW,227,0.0,0.0,46,0.00,,---,0.00,VWS V14.00,2013-03-24 07:00:00,
2013-03-24 01:02:00,2.8,-13.2,0.00,SW,231,0.0,0.0,46,0.00,,---,0.00,VWS V14.00,2013-03-24 07:02:00,
2013-03-24 01:03:00,2.8,-13.2,0.00,SW,231,0.0,0.0,46,0.00,,---,0.00,VWS V14.00,2013-03-24 07:03:00,
2013-03-24 01:04:00,2.8,-13.2,0.00,SW,231,0.0,0.0,46,0.00,,---,0.00,VWS V14.00,2013-03-24 07:04:00,
2013-03-24 01:05:00,2.8,-13.2,0.00,SW,231,0.0,0.0,46,0.00,,---,0.00,VWS V14.00,2013-03-24 07:05:00,
2013-03-24 01:08:00,2.8,-13.2,0.00,SW,231,0.0,0.0,46,0.00,,---,0.00,VWS V14.00,2013-03-24 07:08:00,
2013-03-24 01:09:00,2.8,-13.2,0.00,SW,222,0.0,0.0,46,0.00,,---,0.00,VWS V14.00,2013-03-24 07:09:00,
2013-03-24 01:10:00,2.7,-13.4,0.00,SW,230,0.0,0.0,46,0.00,,---,0.00,VWS V14.00,2013-03-24 07:10:00,
2013-03-24 01:13:00,2.7,-13.4,0.00,SW,231,0.0,0.0,46,0.00,,---,0.00,VWS V14.00,2013-03-24 07:13:00,
2013-03-24 01:14:00,2.7,-13.4,0.00,SW,231,0.0,0.0,46,0.00,,---,0.00,VWS V14.00,2013-03-24 07:14:00,
2013-03-24 01:16:00,2.7,-13.4,0.00,SW,231,0.0,0.0,46,0.00,,---,0.00,VWS V14.00,2013-03-24 07:16:00,
2013-03-24 01:18:00,2.5,-13.6,0.00,SW,232,0.0,0.0,46,0.00,,---,0.00,VWS V14.00,2013-03-24 07:18:00,
2013-03-24 01:19:00,2.5,-13.6,0.00,SW,231,0.0,0.0,46,0.00,,---,0.00,VWS V14.00,2013-03-24 07:19:00,
2013-03-24 01:21:00,2.5,-13.6,0.00,SW,231,0.0,0.0,46,0.00,,---,0.00,VWS V14.00,2013-03-24 07:21:00,
2013-03-24 01:23:00,2.3,-13.7,0.00,SW,231,0.0,0.0,46,0.00,,---,0.00,VWS V14.00,2013-03-24 07:23:00,
2013-03-24 01:24:00,2.3,-13.7,0.00,SW,231,0.0,0.0,46,0.00,,---,0.00,VWS V14.00,2013-03-24 07:24:00,
2013-03-24 01:26:00,2.1,-13.9,0.00,SW,230,0.0,0.0,46,0.00,,---,0.00,VWS V14.00,2013-03-24 07:26:00,
2013-03-24 01:28:00,2.1,-13.9,0.00,SW,231,0.0,0.0,46,0.00,,---,0.00,VWS V14.00,2013-03-24 07:28:00,
2013-03-24 01:29:00,2.1,-13.9,0.00,SW,230,0.0,0.0,46,0.00,,---,0.00,VWS V14.00,2013-03-24 07:29:00,
2013-03-24 01:31:00,2.1,-13.9,0.00,SW,222,0.0,0.0,46,0.00,,---,0.00,VWS V14.00,2013-03-24 07:31:00,
2013-03-24 01:33:00,1.9,-14.1,0.00,SW,231,0.0,0.0,46,0.00,,---,0.00,VWS V14.00,2013-03-24 07:33:00,
2013-03-24 01:34:00,1.9,-14.1,0.00,SW,231,0.0,0.0,46,0.00,,---,0.00,VWS V14.00,2013-03-24 07:34:00,
2013-03-24 01:36:00,1.9,-14.1,0.00,SW,231,0.0,0.0,46,0.00,,---,0.00,VWS V14.00,2013-03-24 07:36:00,
2013-03-24 01:38:00,1.9,-14.1,0.00,SW,231,0.0,0.0,46,0.00,,---,0.00,VWS V14.00,2013-03-24 07:38:00,
2013-03-24 01:40:00,1.9,-14.1,0.00,SW,231,0.0,0.0,46,0.00,,---,0.00,VWS V14.00,2013-03-24 07:40:00,
2013-03-24 01:41:00,1.8,-14.2,0.00,SW,231,0.0,0.0,46,0.00,,---,0.00,VWS V14.00,2013-03-24 07:41:00,
2013-03-24 01:43:00,1.8,-14.2,0.00,SW,232,0.0,0.0,46,0.00,,---,0.00,VWS V14.00,2013-03-24 07:43:00,
2013-03-24 01:44:00,1.8,-14.2,0.00,SW,232,0.0,0.0,46,0.00,,---,0.00,VWS V14.00,2013-03-24 07:44:00,
2013-03-24 01:45:00,1.8,-14.2,0.00,SW,231,0.0,0.0,46,0.00,,---,0.00,VWS V14.00,2013-03-24 07:45:00,
2013-03-24 01:46:00,1.6,-14.4,0.00,SW,231,0.0,0.0,46,0.00,,---,0.00,VWS V14.00,2013-03-24 07:46:00,
2013-03-24 01:48:00,1.6,-14.4,0.00,SW,231,0.0,0.0,46,0.00,,---,0.00,VWS V14.00,2013-03-24 07:48:00,
2013-03-24 01:49:00,1.6,-14.4,0.00,SW,232,0.0,0.0,46,0.00,,---,0.00,VWS V14.00,2013-03-24 07:49:00,
2013-03-24 01:50:00,1.6,-14.4,0.00,SW,231,0.0,0.0,46,0.00,,---,0.00,VWS V14.00,2013-03-24 07:50:00,
2013-03-24 01:51:00,1.6,-14.4,0.00,SW,231,0.0,0.0,46,0.00,,---,0.00,VWS V14.00,2013-03-24 07:51:00,
2013-03-24 01:53:00,1.6,-14.4,0.00,SW,230,0.0,0.0,46,0.00,,---,0.00,VWS V14.00,2013-03-24 07:53:00,
2013-03-24 01:54:00,1.6,-14.4,0.00,SW,230,0.0,0.0,46,0.00,,---,0.00,VWS V14.00,2013-03-24 07:54:00,
2013-03-24 01:55:00,1.6,-14.4,0.00,SW,232,0.0,0.0,46,0.00,,---,0.00,VWS V14.00,2013-03-24 07:55:00,
2013-03-24 01:57:00,1.6,-14.4,0.00,SW,231,0.0,0.0,46,0.00,,---,0.00,VWS V14.00,2013-03-24 07:57:00,
2013-03-24 01:59:00,1.4,-14.6,0.00,SW,231,0.0,0.0,46,0.00,,---,0.00,VWS V14.00,2013-03-24 07:59:00,
2013-03-24 02:00:00,1.4,-14.6,0.00,SW,231,0.0,0.0,46,0.00,,---,0.00,VWS V14.00,2013-03-24 08:00:00,
2013-03-24 02:02:00,1.2,-14.7,0.00,SW,231,0.0,0.0,46,0.00,,---,0.00,VWS V14.00,2013-03-24 08:02:00,
2013-03-24 02:04:00,1.2,-14.7,0.00,SW,231,0.0,0.0,46,0.00,,---,0.00,VWS V14.00,2013-03-24 08:04:00,
2013-03-24 02:05:00,1.2,-14.7,0.00,SSW,210,0.0,2.7,46,0.00,,---,0.00,VWS V14.00,2013-03-24 08:05:00,
2013-03-24 02:07:00,1.2,-14.7,0.00,SSW,210,0.0,0.0,46,0.00,,---,0.00,VWS V14.00,2013-03-24 08:07:00,
2013-03-24 02:09:00,1.2,-14.7,0.00,SSW,210,0.0,0.0,46,0.00,,---,0.00,VWS V14.00,2013-03-24 08:09:00,
2013-03-24 02:10:00,1.2,-14.7,0.00,SSW,210,0.0,0.0,46,0.00,,---,0.00,VWS V14.00,2013-03-24 08:10:00,
2013-03-24 02:12:00,1.2,-14.7,0.00,SSW,210,0.0,0.0,46,0.00,,---,0.00,VWS V14.00,2013-03-24 08:12:00,
2013-03-24 02:14:00,1.2,-14.7,0.00,SSW,197,0.0,0.0,46,0.00,,---,0.00,VWS V14.00,2013-03-24 08:14:00,
2013-03-24 02:15:00,1.2,-14.7,0.00,South,187,0.0,2.7,46,0.00,,---,0.00,VWS V14.00,2013-03-24 08:15:00,
2013-03-24 02:17:00,1.2,-14.7,0.00,South,184,2.7,2.7,46,0.00,,---,0.00,VWS V14.00,2013-03-24 08:17:00,
2013-03-24 02:19:00,1.2,-14.7,0.00,South,182,0.0,0.0,46,0.00,,---,0.00,VWS V14.00,2013-03-24 08:19:00,
2013-03-24 02:21:00,1.2,-14.7,0.00,South,183,0.0,0.0,46,0.00,,---,0.00,VWS V14.00,2013-03-24 08:21:00,
2013-03-24 02:22:00,1.2,-14.7,0.00,South,185,0.0,0.0,46,0.00,,---,0.00,VWS V14.00,2013-03-24 08:22:00,
2013-03-24 02:24:00,1.0,-14.9,0.00,SSE,158,3.6,3.6,46,0.00,,---,0.00,VWS V14.00,2013-03-24 08:24:00,
2013-03-24 02:25:00,1.0,-14.9,0.00,SSE,162,0.0,0.0,46,0.00,,---,0.00,VWS V14.00,2013-03-24 08:25:00,
2013-03-24 02:26:00,1.0,-14.9,0.00,South,171,0.0,0.0,46,0.00,,---,0.00,VWS V14.00,2013-03-24 08:26:00,
2013-03-24 02:27:00,1.0,-14.9,0.00,South,169,2.7,2.7,46,0.00,,---,0.00,VWS V14.00,2013-03-24 08:27:00,
2013-03-24 02:29:00,1.0,-14.9,0.00,South,169,0.0,0.0,46,0.00,,---,0.00,VWS V14.00,2013-03-24 08:29:00,
2013-03-24 02:30:00,0.9,-15.1,0.00,South,172,0.0,0.0,46,0.00,,---,0.00,VWS V14.00,2013-03-24 08:30:00,
2013-03-24 02:31:00,0.9,-15.1,0.00,South,180,0.0,0.0,46,0.00,,---,0.00,VWS V14.00,2013-03-24 08:31:00,
2013-03-24 02:32:00,0.9,-15.1,0.00,SSE,163,3.1,3.6,46,0.00,,---,0.00,VWS V14.00,2013-03-24 08:32:00,
2013-03-24 02:34:00,0.9,-15.1,0.00,SE,127,4.5,4.5,46,0.00,,---,0.00,VWS V14.00,2013-03-24 08:34:00,
2013-03-24 02:35:00,0.9,-15.1,0.00,ESE,123,2.2,2.2,46,0.00,,---,0.00,VWS V14.00,2013-03-24 08:35:00,
2013-03-24 02:36:00,0.9,-15.1,0.00,ESE,111,4.0,4.0,46,0.00,,---,0.00,VWS V14.00,2013-03-24 08:36:00,
2013-03-24 02:38:00,0.9,-15.1,0.00,ESE,111,0.0,0.0,46,0.00,,---,0.00,VWS V14.00,2013-03-24 08:38:00,
2013-03-24 02:39:00,0.9,-15.1,0.00,ESE,110,0.0,3.1,46,0.00,,---,0.00,VWS V14.00,2013-03-24 08:39:00,
2013-03-24 02:40:00,0.9,-15.1,0.00,ESE,111,0.0,0.0,46,0.00,,---,0.00,VWS V14.00,2013-03-24 08:40:00,
2013-03-24 02:41:00,0.9,-15.1,0.00,ESE,110,3.1,3.1,46,0.00,,---,0.00,VWS V14.00,2013-03-24 08:41:00,
2013-03-24 02:43:00,0.9,-15.1,0.00,ESE,106,2.2,3.1,46,0.00,,---,0.00,VWS V14.00,2013-03-24 08:43:00,
2013-03-24 02:44:00,0.9,-15.1,0.00,ESE,106,0.0,2.7,46,0.00,,---,0.00,VWS V14.00,2013-03-24 08:44:00,
2013-03-24 02:45:00,0.9,-15.1,0.00,ESE,106,0.0,0.0,46,0.00,,---,0.00,VWS V14.00,2013-03-24 08:45:00,
2013-03-24 02:46:00,0.9,-15.1,0.00,ESE,103,3.6,3.6,46,0.00,,---,0.00,VWS V14.00,2013-03-24 08:46:00,
2013-03-24 02:48:00,0.9,-15.1,0.00,ESE,118,0.0,2.2,46,0.00,,---,0.00,VWS V14.00,2013-03-24 08:48:00,
2013-03-24 02:49:00,0.9,-15.1,0.00,ESE,119,0.0,0.0,46,0.00,,---,0.00,VWS V14.00,2013-03-24 08:49:00,
2013-03-24 02:50:00,0.9,-15.1,0.00,ESE,119,0.0,0.0,46,0.00,,---,0.00,VWS V14.00,2013-03-24 08:50:00,
2013-03-24 02:52:00,0.9,-15.1,0.00,ESE,119,0.0,0.0,46,0.00,,---,0.00,VWS V14.00,2013-03-24 08:52:00,
2013-03-24 02:53:00,0.9,-15.1,0.00,ESE,115,0.0,0.0,46,0.00,,---,0.00,VWS V14.00,2013-03-24 08:53:00,
2013-03-24 02:55:00,0.9,-15.1,0.00,East,88,3.1,3.1,46,0.00,,---,0.00,VWS V14.00,2013-03-24 08:55:00,
2013-03-24 02:57:00,0.9,-15.1,0.00,East,87,0.0,0.0,46,0.00,,---,0.00,VWS V14.00,2013-03-24 08:57:00,
2013-03-24 02:58:00,0.9,-15.1,0.00,ESE,118,0.0,0.0,46,0.00,,---,0.00,VWS V14.00,2013-03-24 08:58:00,
2013-03-24 03:00:00,0.9,-15.1,0.00,SSE,152,0.0,0.0,46,0.00,,---,0.00,VWS V14.00,2013-03-24 09:00:00,
2013-03-24 03:02:00,0.9,-15.1,0.00,SSW,192,0.0,2.7,46,0.00,,---,0.00,VWS V14.00,2013-03-24 09:02:00,
2013-03-24 03:03:00,0.9,-15.1,0.00,South,185,2.7,2.7,46,0.00,,---,0.00,VWS V14.00,2013-03-24 09:03:00,
2013-03-24 03:05:00,0.9,-15.1,0.00,ESE,111,3.6,4.5,46,0.00,,---,0.00,VWS V14.00,2013-03-24 09:05:00,
2013-03-24 03:07:00,0.9,-15.1,0.00,SSE,162,4.0,4.0,46,0.00,,---,0.00,VWS V14.00,2013-03-24 09:07:00,
2013-03-24 03:09:00,0.9,-15.1,0.00,ESE,123,2.7,5.8,46,0.00,,---,0.00,VWS V14.00,2013-03-24 09:09:00,
2013-03-24 03:10:00,0.9,-15.1,0.00,ENE,72,3.6,4.0,46,0.00,,---,0.00,VWS V14.00,2013-03-24 09:10:00,
2013-03-24 03:13:00,0.9,-15.1,0.00,ESE,105,2.7,5.4,46,0.00,,---,0.00,VWS V14.00,2013-03-24 09:13:00,
2013-03-24 03:14:00,0.9,-15.1,0.00,East,89,2.7,5.4,46,0.00,,---,0.00,VWS V14.00,2013-03-24 09:14:00,
2013-03-24 03:15:00,0.9,-15.1,0.00,East,84,4.0,5.8,46,0.00,,---,0.00,VWS V14.00,2013-03-24 09:15:00,
2013-03-24 03:18:00,0.9,-15.1,0.00,SE,135,3.6,8.7,46,0.00,,---,0.00,VWS V14.00,2013-03-24 09:18:00,
2013-03-24 03:19:00,0.9,-15.1,0.00,East,101,3.1,3.1,46,0.00,,---,0.00,VWS V14.00,2013-03-24 09:19:00,
2013-03-24 03:20:00,0.9,-15.1,0.00,ESE,106,5.4,5.4,46,0.00,,---,0.00,VWS V14.00,2013-03-24 09:20:00,
2013-03-24 03:23:00,0.9,-15.1,0.00,ESE,111,4.0,5.4,46,0.00,,---,0.00,VWS V14.00,2013-03-24 09:23:00,
2013-03-24 03:24:00,1.0,-14.9,0.00,ESE,107,4.9,5.4,46,0.00,,---,0.00,VWS V14.00,2013-03-24 09:24:00,
2013-03-24 03:25:00,1.0,-14.9,0.00,East,101,5.4,6.3,46,0.00,,---,0.00,VWS V14.00,2013-03-24 09:25:00,
2013-03-24 03:28:00,1.0,-14.9,0.00,ESE,111,3.6,4.9,46,0.00,,---,0.00,VWS V14.00,2013-03-24 09:28:00,
2013-03-24 03:29:00,1.0,-14.9,0.00,ESE,120,5.4,5.4,46,0.00,,---,0.00,VWS V14.00,2013-03-24 09:29:00,
2013-03-24 03:30:00,1.0,-14.9,0.00,ESE,117,0.0,2.7,46,0.00,,---,0.00,VWS V14.00,2013-03-24 09:30:00,
2013-03-24 03:33:00,1.0,-14.9,0.00,East,101,3.1,3.1,46,0.00,,---,0.00,VWS V14.00,2013-03-24 09:33:00,
2013-03-24 03:34:00,1.0,-14.9,0.00,ESE,115,2.7,4.0,46,0.00,,---,0.00,VWS V14.00,2013-03-24 09:34:00,
2013-03-24 03:35:00,1.0,-14.9,0.00,SE,137,4.0,4.0,46,0.00,,---,0.00,VWS V14.00,2013-03-24 09:35:00,
2013-03-24 03:36:00,1.0,-14.9,0.00,SE,137,4.0,4.0,46,0.00,,---,0.00,VWS V14.00,2013-03-24 09:36:00,
2013-03-24 03:38:00,1.0,-14.9,0.00,ESE,123,4.0,4.0,46,0.00,,---,0.00,VWS V14.00,2013-03-24 09:38:00,
2013-03-24 03:39:00,1.0,-14.9,0.00,ESE,111,3.6,3.6,46,0.00,,---,0.00,VWS V14.00,2013-03-24 09:39:00,
2013-03-24 03:40:00,1.0,-14.9,0.00,ESE,111,3.1,4.9,46,0.00,,---,0.00,VWS V14.00,2013-03-24 09:40:00,
2013-03-24 03:41:00,1.0,-14.9,0.00,ESE,111,2.2,4.9,46,0.00,,---,0.00,VWS V14.00,2013-03-24 09:41:00,
2013-03-24 03:43:00,1.0,-14.9,0.00,East,96,4.0,5.4,46,0.00,,---,0.00,VWS V14.00,2013-03-24 09:43:00,
2013-03-24 03:44:00,1.0,-14.9,0.00,ESE,109,5.4,5.4,46,0.00,,---,0.00,VWS V14.00,2013-03-24 09:44:00,
2013-03-24 03:45:00,1.0,-14.9,0.00,ESE,111,3.6,5.8,46,0.00,,---,0.00,VWS V14.00,2013-03-24 09:45:00,
2013-03-24 03:46:00,1.0,-14.9,0.00,ESE,111,3.1,4.0,46,0.00,,---,0.00,VWS V14.00,2013-03-24 09:46:00,
2013-03-24 03:48:00,1.2,-14.7,0.00,ESE,116,3.6,6.3,46,0.00,,---,0.00,VWS V14.00,2013-03-24 09:48:00,
2013-03-24 03:50:00,1.2,-14.7,0.00,East,98,6.3,8.1,46,0.00,,---,0.00,VWS V14.00,2013-03-24 09:50:00,
2013-03-24 03:51:00,1.2,-14.7,0.00,East,92,3.1,5.8,46,0.00,,---,0.00,VWS V14.00,2013-03-24 09:51:00,
2013-03-24 03:53:00,1.2,-14.7,0.00,East,98,3.6,4.9,46,0.00,,---,0.00,VWS V14.00,2013-03-24 09:53:00,
2013-03-24 03:55:00,1.2,-14.7,0.00,ESE,113,3.1,4.9,46,0.00,,---,0.00,VWS V14.00,2013-03-24 09:55:00,
2013-03-24 03:57:00,1.2,-14.7,0.00,ESE,112,4.0,4.0,46,0.00,,---,0.00,VWS V14.00,2013-03-24 09:57:00,
2013-03-24 03:59:00,1.2,-14.7,0.00,ESE,114,4.0,4.9,46,0.00,,---,0.00,VWS V14.00,2013-03-24 09:59:00,
2013-03-24 04:00:00,1.2,-14.7,0.00,East,86,5.4,5.4,46,0.00,,---,0.00,VWS V14.00,2013-03-24 10:00:00,
2013-03-24 04:01:00,1.2,-14.7,0.00,East,90,5.8,6.3,46,0.00,,---,0.00,VWS V14.00,2013-03-24 10:01:00,
2013-03-24 04:02:00,1.2,-14.7,0.00,ESE,123,4.0,5.8,46,0.00,,---,0.00,VWS V14.00,2013-03-24 10:02:00,
2013-03-24 04:04:00,1.2,-14.7,0.00,East,92,3.6,4.0,46,0.00,,---,0.00,VWS V14.00,2013-03-24 10:04:00,
2013-03-24 04:05:00,1.2,-14.7,0.00,ESE,102,3.6,3.6,46,0.00,,---,0.00,VWS V14.00,2013-03-24 10:05:00,
2013-03-24 04:06:00,1.0,-14.9,0.00,ESE,122,2.7,3.6,46,0.00,,---,0.00,VWS V14.00,2013-03-24 10:06:00,
2013-03-24 04:07:00,1.0,-14.9,0.00,ESE,116,2.7,2.7,46,0.00,,---,0.00,VWS V14.00,2013-03-24 10:07:00,
2013-03-24 04:09:00,1.0,-14.9,0.00,ESE,120,3.1,4.0,46,0.00,,---,0.00,VWS V14.00,2013-03-24 10:09:00,
2013-03-24 04:10:00,1.2,-14.7,0.00,South,177,4.0,4.9,46,0.00,,---,0.00,VWS V14.00,2013-03-24 10:10:00,
2013-03-24 04:11:00,1.2,-14.7,0.00,ESE,117,2.7,3.6,46,0.00,,---,0.00,VWS V14.00,2013-03-24 10:11:00,
2013-03-24 04:12:00,1.2,-14.7,0.00,ESE,104,5.4,5.4,46,0.00,,---,0.00,VWS V14.00,2013-03-24 10:12:00,
2013-03-24 04:14:00,1.0,-14.9,0.00,SE,126,3.6,4.0,46,0.00,,---,0.00,VWS V14.00,2013-03-24 10:14:00,
2013-03-24 04:15:00,1.0,-14.9,0.00,ESE,112,4.0,5.4,46,0.00,,---,0.00,VWS V14.00,2013-03-24 10:15:00,
2013-03-24 04:16:00,1.0,-14.9,0.00,East,81,3.1,5.8,46,0.00,,---,0.00,VWS V14.00,2013-03-24 10:16:00,
2013-03-24 04:17:00,1.0,-14.9,0.00,ESE,110,5.8,5.8,46,0.00,,---,0.00,VWS V14.00,2013-03-24 10:17:00,
2013-03-24 04:19:00,1.0,-14.9,0.00,SE,136,2.7,4.9,46,0.00,,---,0.00,VWS V14.00,2013-03-24 10:19:00,
2013-03-24 04:20:00,1.0,-14.9,0.00,East,83,3.6,3.6,46,0.00,,---,0.00,VWS V14.00,2013-03-24 10:20:00,
2013-03-24 04:22:00,1.0,-14.9,0.00,ESE,109,2.7,4.0,46,0.00,,---,0.00,VWS V14.00,2013-03-24 10:22:00,
2013-03-24 04:24:00,1.0,-14.9,0.00,ESE,117,3.1,3.1,46,0.00,,---,0.00,VWS V14.00,2013-03-24 10:24:00,
2013-03-24 04:25:00,1.0,-14.9,0.00,ESE,120,2.2,2.2,46,0.00,,---,0.00,VWS V14.00,2013-03-24 10:25:00,
2013-03-24 04:27:00,1.0,-14.9,0.00,East,100,3.1,4.9,46,0.00,,---,0.00,VWS V14.00,2013-03-24 10:27:00,
2013-03-24 04:29:00,1.0,-14.9,0.00,SE,125,2.2,2.7,46,0.00,,---,0.00,VWS V14.00,2013-03-24 10:29:00,
2013-03-24 04:30:00,1.0,-14.9,0.00,ESE,120,3.6,4.0,46,0.00,,---,0.00,VWS V14.00,2013-03-24 10:30:00,
2013-03-24 04:32:00,1.0,-14.9,0.00,ESE,121,2.7,3.6,46,0.00,,---,0.00,VWS V14.00,2013-03-24 10:32:00,
2013-03-24 04:34:00,1.0,-14.9,0.00,ESE,116,4.9,4.9,46,0.00,,---,0.00,VWS V14.00,2013-03-24 10:34:00,
2013-03-24 04:35:00,1.0,-14.9,0.00,East,93,3.1,3.6,46,0.00,,---,0.00,VWS V14.00,2013-03-24 10:35:00,
2013-03-24 04:37:00,1.0,-14.9,0.00,ESE,111,3.6,3.6,46,0.00,,---,0.00,VWS V14.00,2013-03-24 10:37:00,
2013-03-24 04:38:00,1.0,-14.9,0.00,ESE,119,2.2,3.6,46,0.00,,---,0.00,VWS V14.00,2013-03-24 10:38:00,
2013-03-24 04:39:00,1.0,-14.9,0.00,ESE,110,3.1,3.6,46,0.00,,---,0.00,VWS V14.00,2013-03-24 10:39:00,
2013-03-24 04:40:00,0.9,-15.1,0.00,ESE,105,3.1,3.1,46,0.00,,---,0.00,VWS V14.00,2013-03-24 10:40:00,
2013-03-24 04:42:00,0.9,-15.1,0.00,ESE,118,2.7,4.0,46,0.00,,---,0.00,VWS V14.00,2013-03-24 10:42:00,
2013-03-24 04:43:00,0.9,-15.1,0.00,ESE,119,4.0,4.0,46,0.00,,---,0.00,VWS V14.00,2013-03-24 10:43:00,
2013-03-24 04:44:00,0.9,-15.1,0.00,ESE,114,3.1,3.1,46,0.00,,---,0.00,VWS V14.00,2013-03-24 10:44:00,
2013-03-24 04:46:00,0.9,-15.1,0.00,ESE,110,3.6,4.0,46,0.00,,---,0.00,VWS V14.00,2013-03-24 10:46:00,
2013-03-24 04:47:00,0.9,-15.1,0.00,SE,126,0.0,4.0,46,0.00,,---,0.00,VWS V14.00,2013-03-24 10:47:00,
2013-03-24 04:48:00,0.9,-15.1,0.00,SE,126,0.0,0.0,46,0.00,,---,0.00,VWS V14.00,2013-03-24 10:48:00,
2013-03-24 04:49:00,0.9,-15.1,0.00,SE,138,2.7,2.7,46,0.00,,---,0.00,VWS V14.00,2013-03-24 10:49:00,
2013-03-24 04:51:00,0.9,-15.1,0.00,ESE,118,2.7,2.7,46,0.00,,---,0.00,VWS V14.00,2013-03-24 10:51:00,
2013-03-24 04:52:00,0.9,-15.1,0.00,ESE,110,3.1,3.6,46,0.00,,---,0.00,VWS V14.00,2013-03-24 10:52:00,
2013-03-24 04:53:00,0.9,-15.1,0.00,ESE,115,3.1,3.1,46,0.00,,---,0.00,VWS V14.00,2013-03-24 10:53:00,
2013-03-24 04:54:00,0.9,-15.1,0.00,SSE,147,3.1,3.1,46,0.00,,---,0.00,VWS V14.00,2013-03-24 10:54:00,
2013-03-24 04:56:00,0.9,-15.1,0.00,ESE,119,2.7,4.0,46,0.00,,---,0.00,VWS V14.00,2013-03-24 10:56:00,
2013-03-24 04:57:00,0.9,-15.1,0.00,ESE,111,2.7,4.0,46,0.00,,---,0.00,VWS V14.00,2013-03-24 10:57:00,
2013-03-24 04:58:00,0.9,-15.1,0.00,ESE,112,0.0,4.0,46,0.00,,---,0.00,VWS V14.00,2013-03-24 10:58:00,
2013-03-24 04:59:00,0.9,-15.1,0.00,ENE,78,3.6,3.6,46,0.00,,---,0.00,VWS V14.00,2013-03-24 10:59:00,
2013-03-24 05:01:00,0.9,-15.1,0.00,ESE,115,3.1,3.6,46,0.00,,---,0.00,VWS V14.00,2013-03-24 11:01:00,
2013-03-24 05:02:00,0.9,-15.1,0.00,East,93,2.7,2.7,46,0.00,,---,0.00,VWS V14.00,2013-03-24 11:02:00,
2013-03-24 05:03:00,0.9,-15.1,0.00,East,98,2.7,2.7,46,0.00,,---,0.00,VWS V14.00,2013-03-24 11:03:00,
2013-03-24 05:04:00,0.9,-15.1,0.00,ESE,116,3.1,3.6,46,0.00,,---,0.00,VWS V14.00,2013-03-24 11:04:00,
2013-03-24 05:07:00,0.7,-15.2,0.00,ESE,114,2.7,2.7,46,0.00,,---,0.00,VWS V14.00,2013-03-24 11:07:00,
2013-03-24 05:08:00,0.7,-15.2,0.00,ESE,107,4.9,4.9,46,0.00,,---,0.00,VWS V14.00,2013-03-24 11:08:00,
2013-03-24 05:09:00,0.7,-15.2,0.00,ESE,115,3.6,3.6,46,0.00,,---,0.00,VWS V14.00,2013-03-24 11:09:00,
2013-03-24 05:12:00,0.7,-15.2,0.00,ESE,112,2.7,2.7,46,0.00,,---,0.00,VWS V14.00,2013-03-24 11:12:00,
2013-03-24 05:13:00,0.7,-15.2,0.00,ESE,117,2.2,2.2,46,0.00,,---,0.00,VWS V14.00,2013-03-24 11:13:00,
2013-03-24 05:14:00,0.7,-15.2,0.00,East,100,2.7,3.1,46,0.00,,---,0.00,VWS V14.00,2013-03-24 11:14:00,
2013-03-24 05:17:00,0.7,-15.2,0.00,SE,133,4.0,4.0,46,0.00,,---,0.00,VWS V14.00,2013-03-24 11:17:00,
2013-03-24 05:18:00,0.7,-15.2,0.00,East,83,2.2,3.1,46,0.00,,---,0.00,VWS V14.00,2013-03-24 11:18:00,
2013-03-24 05:19:00,0.7,-15.2,0.00,ESE,105,3.1,3.1,46,0.00,,---,0.00,VWS V14.00,2013-03-24 11:19:00,
2013-03-24 05:22:00,0.7,-15.2,0.00,ESE,109,0.0,0.0,46,0.00,,---,0.00,VWS V14.00,2013-03-24 11:22:00,
2013-03-24 05:23:00,0.7,-15.2,0.00,ESE,106,3.6,3.6,46,0.00,,---,0.00,VWS V14.00,2013-03-24 11:23:00,
2013-03-24 05:24:00,0.7,-15.2,0.00,ESE,120,2.7,2.7,46,0.00,,---,0.00,VWS V14.00,2013-03-24 11:24:00,
2013-03-24 05:27:00,0.7,-15.2,0.00,ESE,110,2.7,2.7,46,0.00,,---,0.00,VWS V14.00,2013-03-24 11:27:00,
2013-03-24 05:28:00,0.7,-15.2,0.00,ESE,103,3.6,3.6,46,0.00,,---,0.00,VWS V14.00,2013-03-24 11:28:00,
2013-03-24 05:29:00,0.7,-15.2,0.00,East,95,3.1,3.1,46,0.00,,---,0.00,VWS V14.00,2013-03-24 11:29:00,
2013-03-24 05:32:00,0.7,-15.2,0.00,ESE,102,2.2,3.1,46,0.00,,---,0.00,VWS V14.00,2013-03-24 11:32:00,
2013-03-24 05:33:00,0.7,-15.2,0.00,ESE,102,2.2,3.1,46,0.00,,---,0.00,VWS V14.00,2013-03-24 11:33:00,
2013-03-24 05:34:00,0.7,-15.2,0.00,ESE,103,0.0,3.1,46,0.00,,---,0.00,VWS V14.00,2013-03-24 11:34:00,
2013-03-24 05:37:00,0.7,-15.2,0.00,ESE,113,0.0,3.1,46,0.00,,---,0.00,VWS V14.00,2013-03-24 11:37:00,
2013-03-24 05:38:00,0.7,-15.2,0.00,ESE,113,0.0,0.0,46,0.00,,---,0.00,VWS V14.00,2013-03-24 11:38:00,
2013-03-24 05:40:00,0.7,-15.2,0.00,East,86,0.0,0.0,46,0.00,,---,0.00,VWS V14.00,2013-03-24 11:40:00,
2013-03-24 05:43:00,0.7,-15.2,0.00,East,92,2.2,2.7,46,0.00,,---,0.00,VWS V14.00,2013-03-24 11:43:00,
2013-03-24 05:44:00,0.7,-15.2,0.00,East,93,0.0,0.0,46,0.00,,---,0.00,VWS V14.00,2013-03-24 11:44:00,
2013-03-24 05:45:00,0.7,-15.2,0.00,ESE,104,0.0,2.2,46,0.00,,---,0.00,VWS V14.00,2013-03-24 11:45:00,
2013-03-24 05:48:00,0.7,-15.2,0.00,East,92,2.7,2.7,46,0.00,,---,0.00,VWS V14.00,2013-03-24 11:48:00,
2013-03-24 05:49:00,0.7,-15.2,0.00,ESE,109,0.0,3.1,46,0.00,,---,0.00,VWS V14.00,2013-03-24 11:49:00,
2013-03-24 05:50:00,0.7,-15.2,0.00,ESE,109,2.7,3.6,46,0.00,,---,0.00,VWS V14.00,2013-03-24 11:50:00,
2013-03-24 05:53:00,0.7,-15.2,0.00,East,100,2.7,3.6,46,0.00,,---,0.00,VWS V14.00,2013-03-24 11:53:00,
2013-03-24 05:54:00,0.7,-15.2,0.00,East,98,0.0,3.1,46,0.00,,---,0.00,VWS V14.00,2013-03-24 11:54:00,
2013-03-24 05:55:00,0.5,-15.4,0.00,ESE,118,2.7,3.1,46,0.00,,---,0.00,VWS V14.00,2013-03-24 11:55:00,
2013-03-24 05:58:00,0.5,-15.4,0.00,ESE,102,2.7,2.7,46,0.00,,---,0.00,VWS V14.00,2013-03-24 11:58:00,
2013-03-24 05:59:00,0.5,-15.4,0.00,ESE,112,2.7,3.1,46,0.00,,---,0.00,VWS V14.00,2013-03-24 11:59:00,
2013-03-24 06:00:00,0.5,-15.4,0.00,ESE,110,2.7,3.1,46,0.00,,---,0.00,VWS V14.00,2013-03-24 12:00:00,
2013-03-24 06:03:00,0.5,-15.4,0.00,ESE,116,3.6,4.9,46,0.00,,---,0.00,VWS V14.00,2013-03-24 12:03:00,
2013-03-24 06:04:00,0.3,-15.6,0.00,ESE,120,0.0,0.0,46,0.00,,---,0.00,VWS V14.00,2013-03-24 12:04:00,
2013-03-24 06:06:00,0.3,-15.6,0.00,ESE,114,2.2,3.6,46,0.00,,---,0.00,VWS V14.00,2013-03-24 12:06:00,
2013-03-24 06:08:00,0.3,-15.6,0.00,ESE,110,0.0,2.2,46,0.00,,---,0.00,VWS V14.00,2013-03-24 12:08:00,
2013-03-24 06:09:00,0.3,-15.6,0.00,ESE,112,2.7,2.7,46,0.00,,---,0.00,VWS V14.00,2013-03-24 12:09:00,
2013-03-24 06:11:00,0.3,-15.6,0.00,SE,125,0.0,4.0,46,0.00,,---,0.00,VWS V14.00,2013-03-24 12:11:00,
2013-03-24 06:13:00,0.3,-15.6,0.00,ESE,110,2.7,4.0,46,0.00,,---,0.00,VWS V14.00,2013-03-24 12:13:00,
2013-03-24 06:14:00,0.3,-15.6,0.00,ESE,116,4.0,4.0,46,0.00,,---,0.00,VWS V14.00,2013-03-24 12:14:00,
2013-03-24 06:16:00,0.3,-15.6,0.00,East,91,4.0,4.0,46,0.00,,---,0.00,VWS V14.00,2013-03-24 12:16:00,
2013-03-24 06:18:00,0.3,-15.6,0.00,ESE,109,2.7,3.1,46,0.00,,---,0.00,VWS V14.00,2013-03-24 12:18:00,
2013-03-24 06:19:00,0.3,-15.6,0.00,ESE,119,3.6,3.6,46,0.00,,---,0.00,VWS V14.00,2013-03-24 12:19:00,
2013-03-24 06:21:00,0.3,-15.6,0.00,SE,127,0.0,0.0,46,0.00,,---,0.00,VWS V14.00,2013-03-24 12:21:00,
2013-03-24 06:23:00,0.3,-15.6,0.00,ESE,120,2.7,3.1,46,0.00,,---,0.00,VWS V14.00,2013-03-24 12:23:00,
2013-03-24 06:24:00,0.3,-15.6,0.00,ESE,103,3.1,3.1,46,0.00,,---,0.00,VWS V14.00,2013-03-24 12:24:00,
2013-03-24 06:26:00,0.3,-15.6,0.00,SE,136,0.0,3.6,46,0.00,,---,0.00,VWS V14.00,2013-03-24 12:26:00,
2013-03-24 06:28:00,0.3,-15.6,0.00,East,101,3.1,3.1,46,0.00,,---,0.00,VWS V14.00,2013-03-24 12:28:00,
2013-03-24 06:29:00,0.3,-15.6,0.00,ESE,102,2.7,2.7,46,0.00,,---,0.00,VWS V14.00,2013-03-24 12:29:00,
2013-03-24 06:31:00,0.3,-15.6,0.00,ESE,110,0.0,2.2,46,0.00,,---,0.00,VWS V14.00,2013-03-24 12:31:00,
2013-03-24 06:33:00,0.3,-15.6,0.00,East,94,4.0,4.0,46,0.00,,---,0.00,VWS V14.00,2013-03-24 12:33:00,
2013-03-24 06:34:00,0.1,-15.7,0.00,East,92,0.0,4.0,46,0.00,,---,0.00,VWS V14.00,2013-03-24 12:34:00,
2013-03-24 06:36:00,0.1,-15.7,0.00,East,92,0.0,0.0,46,0.00,,---,0.00,VWS V14.00,2013-03-24 12:36:00,
2013-03-24 06:38:00,0.1,-15.7,0.00,East,92,2.2,2.2,46,0.00,,---,0.00,VWS V14.00,2013-03-24 12:38:00,
2013-03-24 06:39:00,0.1,-15.7,0.00,East,89,0.0,2.2,46,0.00,,---,0.00,VWS V14.00,2013-03-24 12:39:00,
2013-03-24 06:41:00,0.1,-15.7,0.00,East,92,0.0,0.0,46,0.00,,---,0.00,VWS V14.00,2013-03-24 12:41:00,
2013-03-24 06:43:00,0.1,-15.7,0.00,ESE,118,2.2,2.7,46,0.00,,---,0.00,VWS V14.00,2013-03-24 12:43:00,
2013-03-24 06:44:00,0.1,-15.7,0.00,ESE,118,2.2,2.7,46,0.00,,---,0.00,VWS V14.00,2013-03-24 12:44:00,
2013-03-24 06:46:00,0.1,-15.7,0.00,ESE,123,0.0,0.0,46,0.00,,---,0.00,VWS V14.00,2013-03-24 12:46:00,
2013-03-24 06:49:00,0.1,-15.7,0.00,ESE,123,0.0,0.0,46,0.00,,---,0.00,VWS V14.00,2013-03-24 12:49:00,
2013-03-24 06:51:00,0.1,-15.7,0.00,ESE,110,0.0,0.0,46,0.00,,---,0.00,VWS V14.00,2013-03-24 12:51:00,
2013-03-24 06:54:00,0.1,-15.7,0.00,ESE,116,0.0,3.6,46,0.00,,---,0.00,VWS V14.00,2013-03-24 12:54:00,
2013-03-24 06:57:00,0.1,-15.7,0.00,ESE,108,3.1,3.1,46,0.00,,---,0.00,VWS V14.00,2013-03-24 12:57:00,
2013-03-24 06:59:00,0.1,-15.7,0.00,ESE,107,0.0,2.2,46,0.00,,---,0.00,VWS V14.00,2013-03-24 12:59:00,
2013-03-24 07:02:00,0.1,-15.7,0.00,East,98,3.6,4.0,46,0.00,,---,0.00,VWS V14.00,2013-03-24 13:02:00,
2013-03-24 07:04:00,0.1,-15.7,0.00,East,99,0.0,2.7,46,0.00,,---,0.00,VWS V14.00,2013-03-24 13:04:00,
2013-03-24 07:07:00,0.0,-15.9,0.00,ESE,113,4.0,4.0,46,0.00,,---,0.00,VWS V14.00,2013-03-24 13:07:00,
2013-03-24 07:09:00,0.0,-15.9,0.00,SE,127,2.7,2.7,46,0.00,,---,0.00,VWS V14.00,2013-03-24 13:09:00,
2013-03-24 07:10:00,0.0,-15.9,0.00,SE,125,3.1,3.1,46,0.00,,---,0.00,VWS V14.00,2013-03-24 13:10:00,
2013-03-24 07:13:00,0.0,-15.9,0.00,ESE,120,2.7,4.0,46,0.00,,---,0.00,VWS V14.00,2013-03-24 13:13:00,
2013-03-24 07:14:00,0.0,-15.9,0.00,SE,125,3.6,4.0,46,0.00,,---,0.00,VWS V14.00,2013-03-24 13:14:00,
2013-03-24 07:15:00,0.0,-15.9,0.00,ESE,114,4.0,4.0,46,0.00,,---,0.00,VWS V14.00,2013-03-24 13:15:00,
2013-03-24 07:18:00,0.1,-15.7,0.00,SE,144,3.6,3.6,46,0.00,,---,0.00,VWS V14.00,2013-03-24 13:18:00,
2013-03-24 07:19:00,0.0,-15.9,0.00,ESE,120,2.7,4.0,46,0.00,,---,0.00,VWS V14.00,2013-03-24 13:19:00,
2013-03-24 07:20:00,0.0,-15.9,0.00,ESE,121,2.7,4.0,46,0.00,,---,0.00,VWS V14.00,2013-03-24 13:20:00,
2013-03-24 07:23:00,0.1,-15.7,0.00,ESE,109,2.2,4.0,46,0.00,,---,0.00,VWS V14.00,2013-03-24 13:23:00,
2013-03-24 07:24:00,0.1,-15.7,0.00,ESE,113,2.2,4.0,46,0.00,,---,0.00,VWS V14.00,2013-03-24 13:24:00,
2013-03-24 07:25:00,0.1,-15.7,0.00,ESE,112,0.0,4.0,46,0.00,,---,0.00,VWS V14.00,2013-03-24 13:25:00,
2013-03-24 07:28:00,0.1,-15.7,0.00,ESE,108,3.1,3.1,46,0.00,,---,0.00,VWS V14.00,2013-03-24 13:28:00,
2013-03-24 07:29:00,0.1,-15.7,0.00,SE,125,0.0,3.1,46,0.00,,---,0.00,VWS V14.00,2013-03-24 13:29:00,
2013-03-24 07:30:00,0.1,-15.7,0.00,SE,125,0.0,0.0,46,0.00,,---,0.00,VWS V14.00,2013-03-24 13:30:00,
2013-03-24 07:33:00,0.3,-15.6,0.00,ESE,111,0.0,0.0,46,0.00,,---,0.00,VWS V14.00,2013-03-24 13:33:00,
2013-03-24 07:34:00,0.3,-15.6,0.00,ESE,120,2.7,3.1,46,0.00,,---,0.00,VWS V14.00,2013-03-24 13:34:00,
2013-03-24 07:35:00,0.3,-15.6,0.00,ESE,118,2.7,3.6,46,0.00,,---,0.00,VWS V14.00,2013-03-24 13:35:00,
2013-03-24 07:39:00,0.3,-15.6,0.00,East,100,2.7,3.1,46,0.00,,---,0.00,VWS V14.00,2013-03-24 13:39:00,
2013-03-24 07:40:00,0.3,-15.6,0.00,ESE,104,2.7,2.7,46,0.00,,---,0.00,VWS V14.00,2013-03-24 13:40:00,
2013-03-24 07:44:00,0.3,-15.6,0.00,SE,133,2.2,3.6,46,0.00,,---,0.00,VWS V14.00,2013-03-24 13:44:00,
2013-03-24 07:45:00,0.5,-15.4,0.00,SE,129,0.0,0.0,46,0.00,,---,0.00,VWS V14.00,2013-03-24 13:45:00,
2013-03-24 07:49:00,0.5,-15.4,0.00,ESE,120,2.7,3.1,46,0.00,,---,0.00,VWS V14.00,2013-03-24 13:49:00,
2013-03-24 07:50:00,0.7,-15.2,0.00,East,88,2.7,4.0,46,0.00,,---,0.00,VWS V14.00,2013-03-24 13:50:00,
2013-03-24 07:54:00,0.7,-15.2,0.00,ESE,112,2.7,2.7,46,0.00,,---,0.00,VWS V14.00,2013-03-24 13:54:00,
2013-03-24 07:55:00,0.7,-15.2,0.00,ESE,111,0.0,2.7,46,0.00,,---,0.00,VWS V14.00,2013-03-24 13:55:00,
2013-03-24 07:56:00,0.7,-15.2,0.00,ESE,114,3.1,3.1,46,0.00,,---,0.00,VWS V14.00,2013-03-24 13:56:00,
2013-03-24 07:59:00,0.9,-15.1,0.00,SE,124,0.0,0.0,46,0.00,,---,0.00,VWS V14.00,2013-03-24 13:59:00,
2013-03-24 08:00:00,1.0,-14.9,0.00,ESE,108,3.6,3.6,46,0.00,,---,0.00,VWS V14.00,2013-03-24 14:00:00,
2013-03-24 08:01:00,1.0,-14.9,0.00,ESE,112,3.1,4.0,46,0.00,,---,0.00,VWS V14.00,2013-03-24 14:01:00,
2013-03-24 08:04:00,1.2,-14.7,0.00,East,101,0.0,0.0,46,0.00,,---,0.00,VWS V14.00,2013-03-24 14:04:00,
2013-03-24 08:05:00,1.2,-14.7,0.00,ESE,106,2.2,2.7,46,0.00,,---,0.00,VWS V14.00,2013-03-24 14:05:00,
2013-03-24 08:06:00,1.2,-14.7,0.00,SE,132,2.7,2.7,46,0.00,,---,0.00,VWS V14.00,2013-03-24 14:06:00,
2013-03-24 08:09:00,1.4,-14.6,0.00,ESE,115,3.6,5.4,46,0.00,,---,0.00,VWS V14.00,2013-03-24 14:09:00,
2013-03-24 08:10:00,1.6,-14.4,0.00,ESE,116,0.0,0.0,46,0.00,,---,0.00,VWS V14.00,2013-03-24 14:10:00,
2013-03-24 08:11:00,1.6,-14.4,0.00,ESE,115,0.0,0.0,46,0.00,,---,0.00,VWS V14.00,2013-03-24 14:11:00,
2013-03-24 08:14:00,1.8,-14.2,0.00,East,91,0.0,0.0,46,0.00,,---,0.00,VWS V14.00,2013-03-24 14:14:00,
2013-03-24 08:15:00,1.8,-14.2,0.00,ESE,115,4.0,4.0,46,0.00,,---,0.00,VWS V14.00,2013-03-24 14:15:00,
2013-03-24 08:16:00,1.8,-14.2,0.00,SE,126,2.7,3.6,46,0.00,,---,0.00,VWS V14.00,2013-03-24 14:16:00,
2013-03-24 08:19:00,2.1,-13.9,0.00,ESE,105,2.7,4.0,46,0.00,,---,0.00,VWS V14.00,2013-03-24 14:19:00,
2013-03-24 08:20:00,2.1,-13.9,0.00,ESE,110,4.0,4.0,46,0.00,,---,0.00,VWS V14.00,2013-03-24 14:20:00,
2013-03-24 08:21:00,2.1,-13.9,0.00,ESE,111,0.0,4.0,46,0.00,,---,0.00,VWS V14.00,2013-03-24 14:21:00,
2013-03-24 08:24:00,2.5,-13.6,0.00,SSE,152,3.6,6.3,46,0.00,,---,0.00,VWS V14.00,2013-03-24 14:24:00,
2013-03-24 08:25:00,2.5,-13.6,0.00,SSE,154,0.0,0.0,46,0.00,,---,0.00,VWS V14.00,2013-03-24 14:25:00,
2013-03-24 08:26:00,2.5,-13.6,0.00,SSE,155,0.0,0.0,46,0.00,,---,0.00,VWS V14.00,2013-03-24 14:26:00,
2013-03-24 08:27:00,2.7,-13.4,0.00,SSE,157,2.7,2.7,46,0.00,,---,0.00,VWS V14.00,2013-03-24 14:27:00,
2013-03-24 08:29:00,3.0,-13.1,0.00,WSW,239,2.2,3.6,46,0.00,,---,0.00,VWS V14.00,2013-03-24 14:29:00,
2013-03-24 08:30:00,3.0,-13.1,0.00,SSW,205,0.0,0.0,46,0.00,,---,0.00,VWS V14.00,2013-03-24 14:30:00,
2013-03-24 08:31:00,3.2,-12.9,0.00,SSW,204,0.0,0.0,46,0.00,,---,0.00,VWS V14.00,2013-03-24 14:31:00,
2013-03-24 08:32:00,3.2,-12.9,0.00,ESE,123,2.7,2.7,46,0.00,,---,0.00,VWS V14.00,2013-03-24 14:32:00,
2013-03-24 08:34:00,3.6,-12.6,0.00,South,185,0.0,0.0,46,0.00,,---,0.00,VWS V14.00,2013-03-24 14:34:00,
2013-03-24 08:35:00,3.6,-12.6,0.00,South,172,0.0,0.0,46,0.00,,---,0.00,VWS V14.00,2013-03-24 14:35:00,
2013-03-24 08:36:00,3.6,-12.6,0.00,ESE,115,3.1,3.1,46,0.00,,---,0.00,VWS V14.00,2013-03-24 14:36:00,
2013-03-24 08:37:00,3.7,-12.4,0.00,ENE,74,3.1,5.4,46,0.00,,---,0.00,VWS V14.00,2013-03-24 14:37:00,
2013-03-24 08:40:00,4.1,-12.1,0.00,East,93,4.9,4.9,46,0.00,,---,0.00,VWS V14.00,2013-03-24 14:40:00,
2013-03-24 08:41:00,4.1,-12.1,0.00,South,178,2.2,2.7,46,0.00,,---,0.00,VWS V14.00,2013-03-24 14:41:00,
2013-03-24 08:42:00,4.1,-12.1,0.00,ESE,102,3.1,4.0,46,0.00,,---,0.00,VWS V14.00,2013-03-24 14:42:00,
2013-03-24 08:45:00,4.5,-11.7,0.00,ENE,74,2.2,3.6,46,0.00,,---,0.00,VWS V14.00,2013-03-24 14:45:00,
2013-03-24 08:46:00,4.6,-11.6,0.00,East,89,0.0,0.0,46,0.00,,---,0.00,VWS V14.00,2013-03-24 14:46:00,
2013-03-24 08:47:00,4.6,-11.6,0.00,East,87,0.0,0.0,46,0.00,,---,0.00,VWS V14.00,2013-03-24 14:47:00,
2013-03-24 08:50:00,5.0,-11.2,0.00,ESE,123,3.6,4.0,46,0.00,,---,0.00,VWS V14.00,2013-03-24 14:50:00,
2013-03-24 08:52:00,5.2,-11.1,0.00,SSE,155,3.1,4.0,46,0.00,,---,0.00,VWS V14.00,2013-03-24 14:52:00,
2013-03-24 08:55:00,5.5,-10.8,0.00,South,177,2.7,4.9,46,0.00,,---,0.00,VWS V14.00,2013-03-24 14:55:00,
2013-03-24 08:57:00,5.7,-10.6,0.00,SE,129,3.1,3.1,46,0.00,,---,0.00,VWS V14.00,2013-03-24 14:57:00,
2013-03-24 09:00:00,6.1,-10.2,0.00,SE,141,4.0,4.0,46,0.00,,---,0.00,VWS V14.00,2013-03-24 15:00:00,
2013-03-24 09:02:00,6.3,-10.1,0.00,ESE,111,4.0,4.0,46,0.00,,---,0.00,VWS V14.00,2013-03-24 15:02:00,
2013-03-24 09:03:00,6.3,-10.1,0.00,SE,146,5.4,5.4,46,0.00,,---,0.00,VWS V14.00,2013-03-24 15:03:00,
2013-03-24 09:05:00,6.6,-9.8,0.00,SE,129,4.9,5.8,46,0.00,,---,0.00,VWS V14.00,2013-03-24 15:05:00,
2013-03-24 09:07:00,6.8,-9.6,0.00,SE,145,3.6,3.6,46,0.00,,---,0.00,VWS V14.00,2013-03-24 15:07:00,
2013-03-24 09:08:00,6.8,-9.6,0.00,SE,131,2.7,8.7,46,0.00,,---,0.00,VWS V14.00,2013-03-24 15:08:00,
2013-03-24 09:10:00,7.2,-9.3,0.00,South,184,2.7,6.3,46,0.00,,---,0.00,VWS V14.00,2013-03-24 15:10:00,
2013-03-24 09:12:00,7.7,-8.8,0.00,South,187,0.0,4.0,46,0.00,,---,0.00,VWS V14.00,2013-03-24 15:12:00,
2013-03-24 09:13:00,7.7,-8.8,0.00,SSW,197,2.7,4.0,46,0.00,,---,0.00,VWS V14.00,2013-03-24 15:13:00,
2013-03-24 09:15:00,8.2,-8.3,0.00,East,97,5.8,10.5,46,0.00,,---,0.00,VWS V14.00,2013-03-24 15:15:00,
2013-03-24 09:17:00,8.2,-8.3,0.00,SE,131,5.4,5.4,46,0.00,,---,0.00,VWS V14.00,2013-03-24 15:17:00,
2013-03-24 09:18:00,8.2,-8.3,0.00,ESE,122,4.9,5.4,46,0.00,,---,0.00,VWS V14.00,2013-03-24 15:18:00,
2013-03-24 09:20:00,8.2,-8.3,0.00,South,170,2.2,3.6,46,0.00,,---,0.00,VWS V14.00,2013-03-24 15:20:00,
2013-03-24 09:23:00,8.4,-8.1,0.00,East,90,3.6,6.3,46,0.00,,---,0.00,VWS V14.00,2013-03-24 15:23:00,
2013-03-24 09:25:00,8.6,-7.9,0.00,SW,230,3.1,3.1,46,0.00,,---,0.00,VWS V14.00,2013-03-24 15:25:00,
2013-03-24 09:28:00,8.8,-7.8,0.00,South,182,3.1,3.6,46,0.00,,---,0.00,VWS V14.00,2013-03-24 15:28:00,
2013-03-24 09:30:00,9.1,-7.4,0.00,SW,227,2.2,5.8,46,0.00,,---,0.00,VWS V14.00,2013-03-24 15:30:00,
2013-03-24 09:33:00,9.3,-7.3,0.00,ESE,105,4.0,4.9,46,0.00,,---,0.00,VWS V14.00,2013-03-24 15:33:00,
2013-03-24 09:35:00,9.5,-7.1,0.00,East,92,2.7,4.9,46,0.00,,---,0.00,VWS V14.00,2013-03-24 15:35:00,
2013-03-24 09:38:00,9.7,-6.9,0.00,East,100,5.4,7.6,46,0.00,,---,0.00,VWS V14.00,2013-03-24 15:38:00,
2013-03-24 09:40:00,10.0,-6.6,0.00,ESE,104,3.6,4.0,46,0.00,,---,0.00,VWS V14.00,2013-03-24 15:40:00,
2013-03-24 09:43:00,10.2,-6.4,0.00,ESE,120,4.9,4.9,46,0.00,,---,0.00,VWS V14.00,2013-03-24 15:43:00,
2013-03-24 09:45:00,10.4,-6.3,0.00,South,180,2.2,5.8,46,0.00,,---,0.00,VWS V14.00,2013-03-24 15:45:00,
2013-03-24 09:48:00,10.8,-5.9,0.00,ESE,104,6.3,6.3,46,0.00,,---,0.00,VWS V14.00,2013-03-24 15:48:00,
2013-03-24 09:50:00,10.9,-5.8,0.00,ESE,114,5.4,10.1,46,0.00,,---,0.00,VWS V14.00,2013-03-24 15:50:00,
2013-03-24 09:53:00,11.1,-5.6,0.00,SSE,151,3.6,4.0,46,0.00,,---,0.00,VWS V14.00,2013-03-24 15:53:00,
2013-03-24 09:56:00,11.3,-5.4,0.00,WSW,256,4.5,7.6,46,0.00,,---,0.00,VWS V14.00,2013-03-24 15:56:00,
2013-03-24 09:58:00,11.5,-5.3,0.00,East,100,4.0,5.8,46,0.00,,---,0.00,VWS V14.00,2013-03-24 15:58:00,
2013-03-24 09:59:00,11.7,-5.1,0.00,ENE,67,3.6,5.8,46,0.00,,---,0.00,VWS V14.00,2013-03-24 15:59:00,
2013-03-24 10:02:00,11.8,-4.9,0.00,SE,124,5.4,8.1,46,0.00,,---,0.00,VWS V14.00,2013-03-24 16:02:00,
2013-03-24 10:03:00,12.0,-4.8,0.00,East,87,4.0,4.0,46,0.00,,---,0.00,VWS V14.00,2013-03-24 16:03:00,
2013-03-24 10:04:00,12.0,-4.8,0.00,ESE,115,3.6,5.8,46,0.00,,---,0.00,VWS V14.00,2013-03-24 16:04:00,
2013-03-24 10:07:00,12.2,-4.6,0.00,ESE,104,4.9,4.9,46,0.00,,---,0.00,VWS V14.00,2013-03-24 16:07:00,
2013-03-24 10:08:00,12.4,-4.4,0.00,ESE,115,2.7,5.4,46,0.00,,---,0.00,VWS V14.00,2013-03-24 16:08:00,
2013-03-24 10:09:00,12.4,-4.4,0.00,ESE,113,2.7,5.4,46,0.00,,---,0.00,VWS V14.00,2013-03-24 16:09:00,
2013-03-24 10:12:00,12.6,-4.3,0.00,SSE,167,2.7,4.9,46,0.00,,---,0.00,VWS V14.00,2013-03-24 16:12:00,
2013-03-24 10:13:00,12.7,-4.1,0.00,East,100,5.4,5.4,46,0.00,,---,0.00,VWS V14.00,2013-03-24 16:13:00,
2013-03-24 10:14:00,12.7,-4.1,0.00,SE,127,5.4,5.4,46,0.00,,---,0.00,VWS V14.00,2013-03-24 16:14:00,
2013-03-24 10:17:00,12.9,-4.0,0.00,SE,138,3.6,3.6,46,0.00,,---,0.00,VWS V14.00,2013-03-24 16:17:00,
2013-03-24 10:19:00,13.3,-3.6,0.00,East,86,4.0,5.8,46,0.00,,---,0.00,VWS V14.00,2013-03-24 16:19:00,
2013-03-24 10:22:00,13.5,-3.5,0.00,SSW,212,0.0,0.0,46,0.00,,---,0.00,VWS V14.00,2013-03-24 16:22:00,
2013-03-24 10:24:00,13.5,-3.5,0.00,SW,229,2.7,2.7,46,0.00,,---,0.00,VWS V14.00,2013-03-24 16:24:00,
2013-03-24 10:27:00,13.8,-3.1,0.00,SE,145,3.6,3.6,46,0.00,,---,0.00,VWS V14.00,2013-03-24 16:27:00,
2013-03-24 10:29:00,13.8,-3.1,0.00,SSE,160,3.6,3.6,46,0.00,,---,0.00,VWS V14.00,2013-03-24 16:29:00,
2013-03-24 10:32:00,14.2,-2.3,0.00,SW,216,0.0,4.0,47,0.00,,---,0.00,VWS V14.00,2013-03-24 16:32:00,
2013-03-24 10:34:00,14.2,-2.3,0.00,South,183,0.0,3.1,47,0.00,,---,0.00,VWS V14.00,2013-03-24 16:34:00,
2013-03-24 10:38:00,14.4,-2.2,0.00,SE,124,0.0,6.3,47,0.00,,---,0.00,VWS V14.00,2013-03-24 16:38:00,
2013-03-24 10:39:00,14.5,-2.5,0.00,South,178,0.0,0.0,46,0.00,,---,0.00,VWS V14.00,2013-03-24 16:39:00,
2013-03-24 10:43:00,14.5,-2.5,0.00,SSE,161,3.1,4.0,46,0.00,,---,0.00,VWS V14.00,2013-03-24 16:43:00,
2013-03-24 10:44:00,14.7,-2.3,0.00,ESE,111,7.2,7.2,46,0.00,,---,0.00,VWS V14.00,2013-03-24 16:44:00,
2013-03-24 10:45:00,14.7,-2.3,0.00,East,96,6.3,8.1,46,0.00,,---,0.00,VWS V14.00,2013-03-24 16:45:00,
2013-03-24 10:48:00,14.9,-2.1,0.00,ESE,116,4.9,5.4,46,0.00,,---,0.00,VWS V14.00,2013-03-24 16:48:00,
2013-03-24 10:49:00,15.1,-2.0,0.00,NE,51,4.9,5.4,46,0.00,,---,0.00,VWS V14.00,2013-03-24 16:49:00,
2013-03-24 10:50:00,15.1,-2.0,0.00,East,88,3.6,5.4,46,0.00,,---,0.00,VWS V14.00,2013-03-24 16:50:00,
2013-03-24 10:53:00,15.1,-2.0,0.00,SE,127,3.1,4.9,46,0.00,,---,0.00,VWS V14.00,2013-03-24 16:53:00,
2013-03-24 10:54:00,15.3,-1.8,0.00,East,99,5.8,6.3,46,0.00,,---,0.00,VWS V14.00,2013-03-24 16:54:00,
2013-03-24 10:55:00,15.3,-1.8,0.00,East,92,5.4,6.3,46,0.00,,---,0.00,VWS V14.00,2013-03-24 16:55:00,
2013-03-24 10:58:00,15.3,-1.8,0.00,SE,128,4.0,6.3,46,0.00,,---,0.00,VWS V14.00,2013-03-24 16:58:00,
2013-03-24 11:00:00,15.3,-1.8,0.00,ESE,103,5.4,6.3,46,0.00,,---,0.00,VWS V14.00,2013-03-24 17:00:00,
2013-03-24 11:03:00,15.4,-1.6,0.00,East,86,5.4,5.4,46,0.00,,---,0.00,VWS V14.00,2013-03-24 17:03:00,
2013-03-24 11:05:00,15.4,-1.6,0.00,SE,134,6.7,6.7,46,0.00,,---,0.00,VWS V14.00,2013-03-24 17:05:00,
2013-03-24 11:08:00,15.8,-1.3,0.00,East,80,4.9,5.4,46,0.00,,---,0.00,VWS V14.00,2013-03-24 17:08:00,
2013-03-24 11:10:00,15.8,-1.3,0.00,SE,133,4.9,4.9,46,0.00,,---,0.00,VWS V14.00,2013-03-24 17:10:00,
2013-03-24 11:13:00,16.0,-1.1,0.00,East,80,6.3,8.7,46,0.00,,---,0.00,VWS V14.00,2013-03-24 17:13:00,
2013-03-24 11:15:00,16.2,-1.0,0.00,SE,146,9.6,9.6,46,0.00,,---,0.00,VWS V14.00,2013-03-24 17:15:00,
2013-03-24 11:18:00,16.3,-0.8,0.00,ESE,109,4.9,5.8,46,0.00,,---,0.00,VWS V14.00,2013-03-24 17:18:00,
2013-03-24 11:20:00,16.5,-1.1,0.00,ENE,71,3.6,8.7,45,0.00,,---,0.00,VWS V14.00,2013-03-24 17:20:00,
2013-03-24 11:23:00,16.7,-0.9,0.00,ESE,110,11.0,11.0,45,0.00,,---,0.00,VWS V14.00,2013-03-24 17:23:00,
2013-03-24 11:25:00,16.7,-0.9,0.00,East,98,10.1,12.8,45,0.00,,---,0.00,VWS V14.00,2013-03-24 17:25:00,
2013-03-24 11:28:00,16.9,-0.8,0.00,ESE,110,10.1,10.1,45,0.00,,---,0.00,VWS V14.00,2013-03-24 17:28:00,
2013-03-24 11:30:00,16.9,-0.8,0.00,SSE,155,5.8,5.8,45,0.00,,---,0.00,VWS V14.00,2013-03-24 17:30:00,
2013-03-24 11:31:00,17.1,-0.6,0.00,SE,137,4.0,5.8,45,0.00,,---,0.00,VWS V14.00,2013-03-24 17:31:00,
2013-03-24 11:33:00,17.1,-0.6,0.00,SE,125,6.3,9.2,45,0.00,,---,0.00,VWS V14.00,2013-03-24 17:33:00,
2013-03-24 11:35:00,17.2,-0.4,0.00,SE,134,3.1,6.3,45,0.00,,---,0.00,VWS V14.00,2013-03-24 17:35:00,
2013-03-24 11:36:00,17.4,-0.3,0.00,ESE,104,6.3,6.3,45,0.00,,---,0.00,VWS V14.00,2013-03-24 17:36:00,
2013-03-24 11:38:00,17.4,-0.3,0.00,SE,131,8.3,11.0,45,0.00,,---,0.00,VWS V14.00,2013-03-24 17:38:00,
2013-03-24 11:40:00,17.6,-0.1,0.00,SE,131,8.1,10.1,45,0.00,,---,0.00,VWS V14.00,2013-03-24 17:40:00,
2013-03-24 11:41:00,17.6,-0.1,0.00,ESE,106,8.3,8.3,45,0.00,,---,0.00,VWS V14.00,2013-03-24 17:41:00,
2013-03-24 11:43:00,17.8,-0.4,0.00,ESE,119,6.3,11.9,44,0.00,,---,0.00,VWS V14.00,2013-03-24 17:43:00,
2013-03-24 11:45:00,17.8,-0.4,0.00,ESE,122,8.7,8.7,44,0.00,,---,0.00,VWS V14.00,2013-03-24 17:45:00,
2013-03-24 11:46:00,17.8,-0.4,0.00,ESE,114,6.3,6.3,44,0.00,,---,0.00,VWS V14.00,2013-03-24 17:46:00,
2013-03-24 11:48:00,18.0,-0.3,0.00,ESE,114,3.6,5.8,44,0.00,,---,0.00,VWS V14.00,2013-03-24 17:48:00,
2013-03-24 11:50:00,18.0,-0.3,0.00,ENE,76,5.8,6.3,44,0.00,,---,0.00,VWS V14.00,2013-03-24 17:50:00,
2013-03-24 11:51:00,18.1,-0.1,0.00,ESE,113,5.4,8.1,44,0.00,,---,0.00,VWS V14.00,2013-03-24 17:51:00,
2013-03-24 11:52:00,18.1,-0.1,0.00,ESE,105,5.8,8.1,44,0.00,,---,0.00,VWS V14.00,2013-03-24 17:52:00,
2013-03-24 11:54:00,18.1,-0.1,0.00,ESE,103,5.8,5.8,44,0.00,,---,0.00,VWS V14.00,2013-03-24 17:54:00,
2013-03-24 11:56:00,18.1,-0.1,0.00,ESE,115,5.8,7.6,44,0.00,,---,0.00,VWS V14.00,2013-03-24 17:56:00,
2013-03-24 11:57:00,18.3,0.1,0.00,SSE,148,6.3,6.3,44,0.00,,---,0.00,VWS V14.00,2013-03-24 17:57:00,
2013-03-24 11:59:00,18.3,0.1,0.00,South,187,8.1,10.1,44,0.00,,---,0.00,VWS V14.00,2013-03-24 17:59:00,
2013-03-24 12:01:00,18.3,0.1,0.00,East,84,6.3,8.7,44,0.00,,---,0.00,VWS V14.00,2013-03-24 18:01:00,
2013-03-24 12:02:00,18.3,0.1,0.00,ESE,120,5.8,5.8,44,0.00,,---,0.00,VWS V14.00,2013-03-24 18:02:00,
2013-03-24 12:04:00,18.3,0.1,0.00,ESE,105,4.9,8.7,44,0.00,,---,0.00,VWS V14.00,2013-03-24 18:04:00,
2013-03-24 12:06:00,18.5,0.2,0.00,ESE,119,5.4,9.6,44,0.00,,---,0.00,VWS V14.00,2013-03-24 18:06:00,
2013-03-24 12:07:00,18.5,0.2,0.00,SE,142,5.8,7.6,44,0.00,,---,0.00,VWS V14.00,2013-03-24 18:07:00,
2013-03-24 12:09:00,18.5,0.2,0.00,ESE,121,4.0,8.7,44,0.00,,---,0.00,VWS V14.00,2013-03-24 18:09:00,
2013-03-24 12:11:00,18.5,0.2,0.00,ESE,105,6.3,7.6,44,0.00,,---,0.00,VWS V14.00,2013-03-24 18:11:00,
2013-03-24 12:12:00,18.5,0.2,0.00,SE,133,8.1,8.1,44,0.00,,---,0.00,VWS V14.00,2013-03-24 18:12:00,
2013-03-24 12:14:00,18.5,0.2,0.00,ESE,110,8.1,8.7,44,0.00,,---,0.00,VWS V14.00,2013-03-24 18:14:00,
2013-03-24 12:17:00,18.5,0.2,0.00,ESE,115,7.6,13.2,44,0.00,,---,0.00,VWS V14.00,2013-03-24 18:17:00,
2013-03-24 12:20:00,18.5,0.2,0.00,SE,143,3.6,5.4,44,0.00,,---,0.00,VWS V14.00,2013-03-24 18:20:00,
2013-03-24 12:22:00,18.5,0.2,0.00,SE,125,5.8,6.3,44,0.00,,---,0.00,VWS V14.00,2013-03-24 18:22:00,
2013-03-24 12:23:00,18.5,0.2,0.00,SSE,168,8.3,8.3,44,0.00,,---,0.00,VWS V14.00,2013-03-24 18:23:00,
2013-03-24 12:25:00,18.5,0.2,0.00,ESE,120,8.7,8.7,44,0.00,,---,0.00,VWS V14.00,2013-03-24 18:25:00,
2013-03-24 12:27:00,18.7,0.4,0.00,ESE,115,8.3,8.3,44,0.00,,---,0.00,VWS V14.00,2013-03-24 18:27:00,
2013-03-24 12:28:00,18.7,0.4,0.00,ESE,109,8.7,8.7,44,0.00,,---,0.00,VWS V14.00,2013-03-24 18:28:00,
2013-03-24 12:30:00,18.7,0.4,0.00,SE,130,7.6,7.6,44,0.00,,---,0.00,VWS V14.00,2013-03-24 18:30:00,
2013-03-24 12:33:00,19.0,0.7,0.00,SSE,150,6.3,6.3,44,0.00,,---,0.00,VWS V14.00,2013-03-24 18:33:00,
2013-03-24 12:35:00,19.2,0.9,0.00,ESE,110,7.6,7.6,44,0.00,,---,0.00,VWS V14.00,2013-03-24 18:35:00,
2013-03-24 12:38:00,19.2,0.9,0.00,East,100,9.6,9.6,44,0.00,,---,0.00,VWS V14.00,2013-03-24 18:38:00,
2013-03-24 12:39:00,19.2,0.9,0.00,SE,124,5.4,9.6,44,0.00,,---,0.00,VWS V14.00,2013-03-24 18:39:00,
2013-03-24 12:40:00,19.4,1.1,0.00,ESE,121,4.0,7.6,44,0.00,,---,0.00,VWS V14.00,2013-03-24 18:40:00,
2013-03-24 12:43:00,19.4,1.1,0.00,SE,127,4.0,8.7,44,0.00,,---,0.00,VWS V14.00,2013-03-24 18:43:00,
2013-03-24 12:44:00,19.6,0.7,0.00,ESE,112,5.8,8.1,43,0.00,,---,0.00,VWS V14.00,2013-03-24 18:44:00,
2013-03-24 12:45:00,19.6,0.7,0.00,East,101,4.0,4.9,43,0.00,,---,0.00,VWS V14.00,2013-03-24 18:45:00,
2013-03-24 12:48:00,19.6,0.7,0.00,ESE,106,9.6,9.6,43,0.00,,---,0.00,VWS V14.00,2013-03-24 18:48:00,
2013-03-24 12:49:00,19.8,0.9,0.00,SE,126,3.6,8.1,43,0.00,,---,0.00,VWS V14.00,2013-03-24 18:49:00,
2013-03-24 12:50:00,19.8,0.9,0.00,ESE,122,5.4,6.3,43,0.00,,---,0.00,VWS V14.00,2013-03-24 18:50:00,
2013-03-24 12:53:00,19.8,0.9,0.00,ESE,103,3.6,5.4,43,0.00,,---,0.00,VWS V14.00,2013-03-24 18:53:00,
2013-03-24 12:55:00,19.8,0.9,0.00,SE,133,3.1,3.1,43,0.00,,---,0.00,VWS V14.00,2013-03-24 18:55:00,
2013-03-24 12:58:00,19.9,1.1,0.00,SE,131,3.1,3.1,43,0.00,,---,0.00,VWS V14.00,2013-03-24 18:58:00,
2013-03-24 13:00:00,19.9,1.1,0.00,ESE,102,7.6,7.6,43,0.00,,---,0.00,VWS V14.00,2013-03-24 19:00:00,
2013-03-24 13:03:00,20.3,1.4,0.00,ESE,120,8.1,8.1,43,0.00,,---,0.00,VWS V14.00,2013-03-24 19:03:00,
2013-03-24 13:05:00,20.3,1.4,0.00,ESE,111,7.6,7.6,43,0.00,,---,0.00,VWS V14.00,2013-03-24 19:05:00,
2013-03-24 13:08:00,20.3,1.4,0.00,ESE,109,3.6,4.0,43,0.00,,---,0.00,VWS V14.00,2013-03-24 19:08:00,
2013-03-24 13:09:00,20.3,1.4,0.00,East,98,4.9,4.9,43,0.00,,---,0.00,VWS V14.00,2013-03-24 19:09:00,
2013-03-24 13:10:00,20.3,1.4,0.00,SSE,159,5.4,5.4,43,0.00,,---,0.00,VWS V14.00,2013-03-24 19:10:00,
2013-03-24 13:11:00,20.3,1.4,0.00,SE,140,6.3,6.3,43,0.00,,---,0.00,VWS V14.00,2013-03-24 19:11:00,
2013-03-24 13:13:00,20.5,1.5,0.00,ESE,105,5.4,5.4,43,0.00,,---,0.00,VWS V14.00,2013-03-24 19:13:00,
2013-03-24 13:14:00,20.7,1.7,0.00,East,91,6.3,10.1,43,0.00,,---,0.00,VWS V14.00,2013-03-24 19:14:00,
2013-03-24 13:15:00,20.7,1.7,0.00,South,183,2.7,4.9,43,0.00,,---,0.00,VWS V14.00,2013-03-24 19:15:00,
2013-03-24 13:16:00,20.7,1.7,0.00,SE,139,11.0,11.0,43,0.00,,---,0.00,VWS V14.00,2013-03-24 19:16:00,
2013-03-24 13:18:00,20.7,1.7,0.00,ESE,119,5.4,6.3,43,0.00,,---,0.00,VWS V14.00,2013-03-24 19:18:00,
2013-03-24 13:19:00,20.7,1.7,0.00,SSW,205,3.1,5.4,43,0.00,,---,0.00,VWS V14.00,2013-03-24 19:19:00,
2013-03-24 13:20:00,20.5,1.0,0.00,South,169,4.0,4.0,42,0.00,,---,0.00,VWS V14.00,2013-03-24 19:20:00,
2013-03-24 13:22:00,20.5,1.0,0.00,SW,222,3.1,8.3,42,0.00,,---,0.00,VWS V14.00,2013-03-24 19:22:00,
2013-03-24 13:23:00,20.3,-0.2,0.00,SSW,208,4.0,5.8,40,0.00,,---,0.00,VWS V14.00,2013-03-24 19:23:00,
2013-03-24 13:24:00,20.3,-0.2,0.00,SW,216,2.7,5.4,40,0.00,,---,0.00,VWS V14.00,2013-03-24 19:24:00,
2013-03-24 13:25:00,20.3,-0.2,0.00,SW,217,10.1,10.1,40,0.00,,---,0.00,VWS V14.00,2013-03-24 19:25:00,
2013-03-24 13:27:00,20.1,-0.3,0.00,SSW,198,4.9,4.9,40,0.00,,---,0.00,VWS V14.00,2013-03-24 19:27:00,
2013-03-24 13:28:00,19.9,-1.6,0.00,WSW,255,4.0,5.8,38,0.00,,---,0.00,VWS V14.00,2013-03-24 19:28:00,
2013-03-24 13:30:00,19.8,-1.7,0.00,SE,136,7.2,7.2,38,0.00,,---,0.00,VWS V14.00,2013-03-24 19:30:00,
2013-03-24 13:32:00,19.8,-1.2,0.00,ESE,110,4.9,8.1,39,0.00,,---,0.00,VWS V14.00,2013-03-24 19:32:00,
2013-03-24 13:34:00,19.8,-0.6,0.00,East,99,6.3,6.7,40,0.00,,---,0.00,VWS V14.00,2013-03-24 19:34:00,
2013-03-24 13:35:00,19.8,-0.6,0.00,SE,143,5.8,8.7,40,0.00,,---,0.00,VWS V14.00,2013-03-24 19:35:00,
2013-03-24 13:37:00,19.8,-1.2,0.00,SE,142,4.9,5.4,39,0.00,,---,0.00,VWS V14.00,2013-03-24 19:37:00,
2013-03-24 13:39:00,19.8,-1.2,0.00,ESE,108,4.0,5.4,39,0.00,,---,0.00,VWS V14.00,2013-03-24 19:39:00,
2013-03-24 13:40:00,19.8,-0.6,0.00,SE,129,7.6,9.2,40,0.00,,---,0.00,VWS V14.00,2013-03-24 19:40:00,
2013-03-24 13:42:00,19.8,-0.6,0.00,East,100,8.3,8.3,40,0.00,,---,0.00,VWS V14.00,2013-03-24 19:42:00,
2013-03-24 13:44:00,19.9,-0.5,0.00,ESE,120,8.7,10.1,40,0.00,,---,0.00,VWS V14.00,2013-03-24 19:44:00,
2013-03-24 13:45:00,19.9,-1.0,0.00,SE,126,7.2,7.2,39,0.00,,---,0.00,VWS V14.00,2013-03-24 19:45:00,
2013-03-24 13:47:00,19.8,-1.2,0.00,ESE,119,6.7,8.3,39,0.00,,---,0.00,VWS V14.00,2013-03-24 19:47:00,
2013-03-24 13:49:00,19.8,-1.2,0.00,SE,129,7.6,7.6,39,0.00,,---,0.00,VWS V14.00,2013-03-24 19:49:00,
2013-03-24 13:50:00,19.8,-1.2,0.00,SE,142,3.6,3.6,39,0.00,,---,0.00,VWS V14.00,2013-03-24 19:50:00,
2013-03-24 13:51:00,19.6,-1.3,0.00,SSE,149,5.4,11.0,39,0.00,,---,0.00,VWS V14.00,2013-03-24 19:51:00,
2013-03-24 13:52:00,19.6,-1.3,0.00,SSE,147,7.6,7.6,39,0.00,,---,0.00,VWS V14.00,2013-03-24 19:52:00,
2013-03-24 13:54:00,19.6,-1.3,0.00,SE,139,5.4,5.8,39,0.00,,---,0.00,VWS V14.00,2013-03-24 19:54:00,
2013-03-24 13:55:00,19.6,-1.3,0.00,ENE,71,5.4,5.4,39,0.00,,---,0.00,VWS V14.00,2013-03-24 19:55:00,
2013-03-24 13:57:00,19.6,-1.3,0.00,SE,143,5.8,5.8,39,0.00,,---,0.00,VWS V14.00,2013-03-24 19:57:00,
2013-03-24 13:59:00,19.8,-1.2,0.00,East,87,7.6,7.6,39,0.00,,---,0.00,VWS V14.00,2013-03-24 19:59:00,
2013-03-24 14:00:00,19.8,-1.2,0.00,SSW,208,2.7,7.6,39,0.00,,---,0.00,VWS V14.00,2013-03-24 20:00:00,
2013-03-24 14:02:00,19.8,-0.6,0.00,ENE,74,7.6,8.7,40,0.00,,---,0.00,VWS V14.00,2013-03-24 20:02:00,
2013-03-24 14:04:00,19.8,-0.6,0.00,ESE,109,7.6,7.6,40,0.00,,---,0.00,VWS V14.00,2013-03-24 20:04:00,
2013-03-24 14:05:00,19.8,-1.2,0.00,ESE,104,6.3,6.3,39,0.00,,---,0.00,VWS V14.00,2013-03-24 20:05:00,
2013-03-24 14:07:00,19.8,-1.2,0.00,SE,140,5.4,10.5,39,0.00,,---,0.00,VWS V14.00,2013-03-24 20:07:00,
2013-03-24 14:08:00,19.8,-1.2,0.00,SE,135,6.3,10.5,39,0.00,,---,0.00,VWS V14.00,2013-03-24 20:08:00,
2013-03-24 14:09:00,19.8,-1.2,0.00,SE,130,12.8,12.8,39,0.00,,---,0.00,VWS V14.00,2013-03-24 20:09:00,
2013-03-24 14:10:00,19.8,-1.2,0.00,SE,143,6.7,8.1,39,0.00,,---,0.00,VWS V14.00,2013-03-24 20:10:00,
2013-03-24 14:12:00,19.8,-1.2,0.00,SSE,149,5.8,5.8,39,0.00,,---,0.00,VWS V14.00,2013-03-24 20:12:00,
2013-03-24 14:13:00,19.8,-1.2,0.00,SE,130,5.4,5.4,39,0.00,,---,0.00,VWS V14.00,2013-03-24 20:13:00,
2013-03-24 14:14:00,19.8,-1.2,0.00,ENE,78,4.5,5.4,39,0.00,,---,0.00,VWS V14.00,2013-03-24 20:14:00,
2013-03-24 14:16:00,19.8,-1.2,0.00,SE,142,4.9,5.4,39,0.00,,---,0.00,VWS V14.00,2013-03-24 20:16:00,
2013-03-24 14:17:00,19.8,-1.2,0.00,SE,135,5.8,8.7,39,0.00,,---,0.00,VWS V14.00,2013-03-24 20:17:00,
2013-03-24 14:18:00,19.6,-1.3,0.00,ESE,110,5.4,8.1,39,0.00,,---,0.00,VWS V14.00,2013-03-24 20:18:00,
2013-03-24 14:19:00,19.6,-1.3,0.00,East,86,7.6,10.1,39,0.00,,---,0.00,VWS V14.00,2013-03-24 20:19:00,
2013-03-24 14:21:00,19.6,-1.3,0.00,SE,145,10.1,10.1,39,0.00,,---,0.00,VWS V14.00,2013-03-24 20:21:00,
2013-03-24 14:22:00,19.4,-1.5,0.00,SW,225,7.6,7.6,39,0.00,,---,0.00,VWS V14.00,2013-03-24 20:22:00,
2013-03-24 14:23:00,19.4,-1.5,0.00,SSW,212,0.0,2.7,39,0.00,,---,0.00,VWS V14.00,2013-03-24 20:23:00,
2013-03-24 14:24:00,19.4,-1.5,0.00,SE,143,2.7,2.7,39,0.00,,---,0.00,VWS V14.00,2013-03-24 20:24:00,
2013-03-24 14:27:00,19.4,-1.5,0.00,South,187,5.8,5.8,39,0.00,,---,0.00,VWS V14.00,2013-03-24 20:27:00,
2013-03-24 14:28:00,19.4,-1.5,0.00,ENE,64,2.7,5.4,39,0.00,,---,0.00,VWS V14.00,2013-03-24 20:28:00,
2013-03-24 14:29:00,19.4,-1.5,0.00,SW,220,0.0,2.2,39,0.00,,---,0.00,VWS V14.00,2013-03-24 20:29:00,
2013-03-24 14:32:00,19.4,-1.0,0.00,East,87,7.6,8.1,40,0.00,,---,0.00,VWS V14.00,2013-03-24 20:32:00,
2013-03-24 14:34:00,19.6,-1.3,0.00,East,91,6.3,6.3,39,0.00,,---,0.00,VWS V14.00,2013-03-24 20:34:00,
2013-03-24 14:35:00,19.6,-1.3,0.00,SE,132,8.3,8.3,39,0.00,,---,0.00,VWS V14.00,2013-03-24 20:35:00,
2013-03-24 14:37:00,19.6,-1.3,0.00,SE,140,3.1,5.8,39,0.00,,---,0.00,VWS V14.00,2013-03-24 20:37:00,
2013-03-24 14:38:00,19.6,-1.3,0.00,SSW,206,2.2,10.1,39,0.00,,---,0.00,VWS V14.00,2013-03-24 20:38:00,
2013-03-24 14:39:00,19.6,-1.3,0.00,ESE,111,5.8,8.3,39,0.00,,---,0.00,VWS V14.00,2013-03-24 20:39:00,
2013-03-24 14:40:00,19.6,-1.3,0.00,East,80,8.1,8.1,39,0.00,,---,0.00,VWS V14.00,2013-03-24 20:40:00,
2013-03-24 14:42:00,19.6,-1.3,0.00,SSW,205,5.4,7.2,39,0.00,,---,0.00,VWS V14.00,2013-03-24 20:42:00,
2013-03-24 14:43:00,19.6,-1.3,0.00,SSW,211,3.6,7.2,39,0.00,,---,0.00,VWS V14.00,2013-03-24 20:43:00,
2013-03-24 14:44:00,19.6,-1.9,0.00,South,171,2.2,2.7,38,0.00,,---,0.00,VWS V14.00,2013-03-24 20:44:00,
2013-03-24 14:45:00,19.8,-1.7,0.00,East,99,6.3,6.3,38,0.00,,---,0.00,VWS V14.00,2013-03-24 20:45:00,
2013-03-24 14:47:00,19.8,-1.2,0.00,East,100,8.7,8.7,39,0.00,,---,0.00,VWS V14.00,2013-03-24 20:47:00,
2013-03-24 14:48:00,19.8,-1.2,0.00,ENE,66,4.0,4.0,39,0.00,,---,0.00,VWS V14.00,2013-03-24 20:48:00,
2013-03-24 14:49:00,19.9,-1.6,0.00,SSE,150,4.0,7.6,38,0.00,,---,0.00,VWS V14.00,2013-03-24 20:49:00,
2013-03-24 14:50:00,19.9,-1.0,0.00,South,181,8.7,8.7,39,0.00,,---,0.00,VWS V14.00,2013-03-24 20:50:00,
2013-03-24 14:53:00,20.1,-0.9,0.00,SE,127,4.0,4.0,39,0.00,,---,0.00,VWS V14.00,2013-03-24 20:53:00,
2013-03-24 14:54:00,20.1,-0.9,0.00,SW,219,0.0,0.0,39,0.00,,---,0.00,VWS V14.00,2013-03-24 20:54:00,
2013-03-24 14:55:00,20.1,-0.9,0.00,SW,227,2.7,2.7,39,0.00,,---,0.00,VWS V14.00,2013-03-24 20:55:00,
2013-03-24 14:58:00,20.1,-0.9,0.00,ESE,115,8.1,8.1,39,0.00,,---,0.00,VWS V14.00,2013-03-24 20:58:00,
2013-03-24 14:59:00,20.1,-0.3,0.00,ESE,108,3.6,5.4,40,0.00,,---,0.00,VWS V14.00,2013-03-24 20:59:00,
2013-03-24 15:00:00,20.1,-0.3,0.00,ESE,104,3.6,4.0,40,0.00,,---,0.00,VWS V14.00,2013-03-24 21:00:00,
2013-03-24 15:03:00,20.3,0.4,0.00,ESE,112,3.6,4.0,41,0.00,,---,0.00,VWS V14.00,2013-03-24 21:03:00,
2013-03-24 15:04:00,20.5,0.5,0.00,SE,136,5.8,7.6,41,0.00,,---,0.00,VWS V14.00,2013-03-24 21:04:00,
2013-03-24 15:05:00,20.5,0.0,0.00,East,101,6.3,6.3,40,0.00,,---,0.00,VWS V14.00,2013-03-24 21:05:00,
2013-03-24 15:08:00,20.7,0.7,0.00,East,87,4.0,4.0,41,0.00,,---,0.00,VWS V14.00,2013-03-24 21:08:00,
2013-03-24 15:09:00,20.7,0.7,0.00,ESE,123,4.0,4.0,41,0.00,,---,0.00,VWS V14.00,2013-03-24 21:09:00,
2013-03-24 15:10:00,20.7,0.7,0.00,SE,132,4.0,5.4,41,0.00,,---,0.00,VWS V14.00,2013-03-24 21:10:00,
2013-03-24 15:13:00,20.8,0.3,0.00,South,185,3.1,6.3,40,0.00,,---,0.00,VWS V14.00,2013-03-24 21:13:00,
2013-03-24 15:14:00,20.8,0.3,0.00,SSE,148,2.7,8.3,40,0.00,,---,0.00,VWS V14.00,2013-03-24 21:14:00,
2013-03-24 15:15:00,20.8,0.3,0.00,ESE,114,8.1,10.1,40,0.00,,---,0.00,VWS V14.00,2013-03-24 21:15:00,
2013-03-24 15:16:00,20.8,0.3,0.00,SE,140,3.6,8.1,40,0.00,,---,0.00,VWS V14.00,2013-03-24 21:16:00,
2013-03-24 15:18:00,21.0,0.5,0.00,ESE,102,5.8,5.8,40,0.00,,---,0.00,VWS V14.00,2013-03-24 21:18:00,
2013-03-24 15:19:00,21.2,0.7,0.00,ENE,70,5.8,8.1,40,0.00,,---,0.00,VWS V14.00,2013-03-24 21:19:00,
2013-03-24 15:20:00,21.2,0.7,0.00,ESE,103,3.6,5.8,40,0.00,,---,0.00,VWS V14.00,2013-03-24 21:20:00,
2013-03-24 15:21:00,21.2,0.7,0.00,SE,142,7.2,7.2,40,0.00,,---,0.00,VWS V14.00,2013-03-24 21:21:00,
2013-03-24 15:23:00,21.4,0.8,0.00,ENE,65,4.0,4.0,40,0.00,,---,0.00,VWS V14.00,2013-03-24 21:23:00,
2013-03-24 15:24:00,21.4,0.8,0.00,ESE,110,5.4,5.8,40,0.00,,---,0.00,VWS V14.00,2013-03-24 21:24:00,
2013-03-24 15:25:00,21.4,0.8,0.00,SE,139,6.3,9.6,40,0.00,,---,0.00,VWS V14.00,2013-03-24 21:25:00,
2013-03-24 15:26:00,21.4,0.3,0.00,ESE,104,7.6,7.6,39,0.00,,---,0.00,VWS V14.00,2013-03-24 21:26:00,
2013-03-24 15:28:00,21.4,0.3,0.00,ESE,103,8.3,8.3,39,0.00,,---,0.00,VWS V14.00,2013-03-24 21:28:00,
2013-03-24 15:29:00,21.6,0.4,0.00,East,85,9.2,9.2,39,0.00,,---,0.00,VWS V14.00,2013-03-24 21:29:00,
2013-03-24 15:30:00,21.4,0.3,0.00,East,93,3.6,9.2,39,0.00,,---,0.00,VWS V14.00,2013-03-24 21:30:00,
2013-03-24 15:32:00,21.4,-0.3,0.00,ESE,109,5.4,5.4,38,0.00,,---,0.00,VWS V14.00,2013-03-24 21:32:00,
2013-03-24 15:33:00,21.4,-0.3,0.00,ESE,114,4.0,8.3,38,0.00,,---,0.00,VWS V14.00,2013-03-24 21:33:00,
2013-03-24 15:34:00,21.4,-0.3,0.00,SE,136,3.6,3.6,38,0.00,,---,0.00,VWS V14.00,2013-03-24 21:34:00,
2013-03-24 15:35:00,21.4,-0.3,0.00,ESE,117,5.8,8.3,38,0.00,,---,0.00,VWS V14.00,2013-03-24 21:35:00,
2013-03-24 15:37:00,21.4,-0.3,0.00,SE,129,4.9,5.4,38,0.00,,---,0.00,VWS V14.00,2013-03-24 21:37:00,
2013-03-24 15:38:00,21.4,0.3,0.00,East,101,8.1,8.1,39,0.00,,---,0.00,VWS V14.00,2013-03-24 21:38:00,
2013-03-24 15:39:00,21.4,0.3,0.00,SW,227,3.6,3.6,39,0.00,,---,0.00,VWS V14.00,2013-03-24 21:39:00,
2013-03-24 15:40:00,21.4,0.3,0.00,SW,227,2.7,2.7,39,0.00,,---,0.00,VWS V14.00,2013-03-24 21:40:00,
2013-03-24 15:42:00,21.4,0.3,0.00,SSW,192,2.2,4.9,39,0.00,,---,0.00,VWS V14.00,2013-03-24 21:42:00,
2013-03-24 15:43:00,21.4,0.3,0.00,SSE,155,3.1,3.1,39,0.00,,---,0.00,VWS V14.00,2013-03-24 21:43:00,
2013-03-24 15:44:00,21.4,0.3,0.00,SW,223,3.6,3.6,39,0.00,,---,0.00,VWS V14.00,2013-03-24 21:44:00,
2013-03-24 15:45:00,21.2,0.1,0.00,SE,145,4.0,5.8,39,0.00,,---,0.00,VWS V14.00,2013-03-24 21:45:00,
2013-03-24 15:47:00,21.2,0.1,0.00,South,177,5.4,5.4,39,0.00,,---,0.00,VWS V14.00,2013-03-24 21:47:00,
2013-03-24 15:48:00,21.0,0.0,0.00,SSW,211,3.6,3.6,39,0.00,,---,0.00,VWS V14.00,2013-03-24 21:48:00,
2013-03-24 15:49:00,21.0,0.0,0.00,SSW,201,0.0,2.7,39,0.00,,---,0.00,VWS V14.00,2013-03-24 21:49:00,
2013-03-24 15:50:00,20.8,-0.2,0.00,SE,125,2.7,2.7,39,0.00,,---,0.00,VWS V14.00,2013-03-24 21:50:00,
2013-03-24 15:52:00,20.8,-0.2,0.00,SSW,208,0.0,0.0,39,0.00,,---,0.00,VWS V14.00,2013-03-24 21:52:00,
2013-03-24 15:54:00,20.7,-0.4,0.00,SSW,209,0.0,0.0,39,0.00,,---,0.00,VWS V14.00,2013-03-24 21:54:00,
2013-03-24 15:55:00,20.5,-0.5,0.00,SSW,204,0.0,0.0,39,0.00,,---,0.00,VWS V14.00,2013-03-24 21:55:00,
2013-03-24 15:57:00,20.5,-0.5,0.00,SW,228,3.1,3.1,39,0.00,,---,0.00,VWS V14.00,2013-03-24 21:57:00,
2013-03-24 15:59:00,20.3,-0.7,0.00,SSE,150,4.5,4.5,39,0.00,,---,0.00,VWS V14.00,2013-03-24 21:59:00,
2013-03-24 16:00:00,20.3,-0.7,0.00,SE,135,5.8,5.8,39,0.00,,---,0.00,VWS V14.00,2013-03-24 22:00:00,
2013-03-24 16:02:00,20.3,-0.7,0.00,South,179,0.0,0.0,39,0.00,,---,0.00,VWS V14.00,2013-03-24 22:02:00,
2013-03-24 16:04:00,20.3,-0.7,0.00,SSW,196,0.0,3.6,39,0.00,,---,0.00,VWS V14.00,2013-03-24 22:04:00,
2013-03-24 16:05:00,20.1,-0.9,0.00,SSW,198,0.0,0.0,39,0.00,,---,0.00,VWS V14.00,2013-03-24 22:05:00,
2013-03-24 16:07:00,20.1,-0.9,0.00,SSW,201,0.0,0.0,39,0.00,,---,0.00,VWS V14.00,2013-03-24 22:07:00,
2013-03-24 16:09:00,19.9,-1.0,0.00,SSW,199,0.0,0.0,39,0.00,,---,0.00,VWS V14.00,2013-03-24 22:09:00,
2013-03-24 16:10:00,19.9,-1.0,0.00,WSW,246,0.0,3.1,39,0.00,,---,0.00,VWS V14.00,2013-03-24 22:10:00,
2013-03-24 16:11:00,19.9,-1.0,0.00,SE,143,3.6,3.6,39,0.00,,---,0.00,VWS V14.00,2013-03-24 22:11:00,
2013-03-24 16:13:00,19.9,-1.0,0.00,WSW,241,2.2,3.1,39,0.00,,---,0.00,VWS V14.00,2013-03-24 22:13:00,
2013-03-24 16:14:00,19.9,-1.0,0.00,SSW,200,3.6,3.6,39,0.00,,---,0.00,VWS V14.00,2013-03-24 22:14:00,
2013-03-24 16:15:00,19.8,-1.7,0.00,SW,226,0.0,0.0,38,0.00,,---,0.00,VWS V14.00,2013-03-24 22:15:00,
2013-03-24 16:16:00,19.8,-1.7,0.00,SW,221,2.7,2.7,38,0.00,,---,0.00,VWS V14.00,2013-03-24 22:16:00,
2013-03-24 16:18:00,19.8,-1.7,0.00,SSW,193,0.0,2.7,38,0.00,,---,0.00,VWS V14.00,2013-03-24 22:18:00,
2013-03-24 16:19:00,19.6,-1.9,0.00,South,173,3.1,3.6,38,0.00,,---,0.00,VWS V14.00,2013-03-24 22:19:00,
2013-03-24 16:20:00,19.6,-1.9,0.00,SSE,158,3.6,3.6,38,0.00,,---,0.00,VWS V14.00,2013-03-24 22:20:00,
2013-03-24 16:21:00,19.4,-1.5,0.00,ESE,114,3.6,3.6,39,0.00,,---,0.00,VWS V14.00,2013-03-24 22:21:00,
2013-03-24 16:23:00,19.4,-1.5,0.00,East,100,4.0,4.0,39,0.00,,---,0.00,VWS V14.00,2013-03-24 22:23:00,
2013-03-24 16:24:00,19.6,-1.3,0.00,ESE,117,3.1,3.1,39,0.00,,---,0.00,VWS V14.00,2013-03-24 22:24:00,
2013-03-24 16:25:00,19.6,-1.3,0.00,ESE,118,3.1,3.1,39,0.00,,---,0.00,VWS V14.00,2013-03-24 22:25:00,
2013-03-24 16:26:00,19.6,-1.3,0.00,SE,135,6.3,6.3,39,0.00,,---,0.00,VWS V14.00,2013-03-24 22:26:00,
2013-03-24 16:28:00,19.6,-1.3,0.00,ESE,122,4.0,4.0,39,0.00,,---,0.00,VWS V14.00,2013-03-24 22:28:00,
2013-03-24 16:29:00,19.6,-1.3,0.00,SE,133,2.7,3.1,39,0.00,,---,0.00,VWS V14.00,2013-03-24 22:29:00,
2013-03-24 16:30:00,19.6,-1.3,0.00,SW,220,0.0,0.0,39,0.00,,---,0.00,VWS V14.00,2013-03-24 22:30:00,
2013-03-24 16:31:00,19.4,-1.5,0.00,SW,216,0.0,0.0,39,0.00,,---,0.00,VWS V14.00,2013-03-24 22:31:00,
2013-03-24 16:33:00,19.4,-2.0,0.00,SW,214,0.0,0.0,38,0.00,,---,0.00,VWS V14.00,2013-03-24 22:33:00,
2013-03-24 16:35:00,19.2,-2.2,0.00,ESE,103,0.0,3.1,38,0.00,,---,0.00,VWS V14.00,2013-03-24 22:35:00,
2013-03-24 16:36:00,19.2,-2.2,0.00,South,178,0.0,3.6,38,0.00,,---,0.00,VWS V14.00,2013-03-24 22:36:00,
2013-03-24 16:38:00,19.0,-2.4,0.00,WSW,246,2.2,3.1,38,0.00,,---,0.00,VWS V14.00,2013-03-24 22:38:00,
2013-03-24 16:40:00,19.0,-2.4,0.00,SW,225,0.0,0.0,38,0.00,,---,0.00,VWS V14.00,2013-03-24 22:40:00,
2013-03-24 16:41:00,18.9,-2.5,0.00,SW,216,2.2,3.1,38,0.00,,---,0.00,VWS V14.00,2013-03-24 22:41:00,
2013-03-24 16:42:00,18.7,-2.7,0.00,SSW,212,2.7,3.1,38,0.00,,---,0.00,VWS V14.00,2013-03-24 22:42:00,
2013-03-24 16:44:00,18.5,-2.9,0.00,SE,127,5.4,5.4,38,0.00,,---,0.00,VWS V14.00,2013-03-24 22:44:00,
2013-03-24 16:45:00,18.5,-2.9,0.00,SE,143,5.4,5.8,38,0.00,,---,0.00,VWS V14.00,2013-03-24 22:45:00,
2013-03-24 16:46:00,18.5,-2.3,0.00,South,187,0.0,0.0,39,0.00,,---,0.00,VWS V14.00,2013-03-24 22:46:00,
2013-03-24 16:47:00,18.3,-2.5,0.00,SW,215,2.2,2.7,39,0.00,,---,0.00,VWS V14.00,2013-03-24 22:47:00,
2013-03-24 16:49:00,18.3,-2.5,0.00,SSW,209,4.0,4.0,39,0.00,,---,0.00,VWS V14.00,2013-03-24 22:49:00,
2013-03-24 16:50:00,18.1,-2.6,0.00,SSW,197,2.7,2.7,39,0.00,,---,0.00,VWS V14.00,2013-03-24 22:50:00,
2013-03-24 16:51:00,18.1,-2.6,0.00,SSE,168,3.1,3.1,39,0.00,,---,0.00,VWS V14.00,2013-03-24 22:51:00,
2013-03-24 16:52:00,18.1,-2.6,0.00,SE,128,3.6,3.6,39,0.00,,---,0.00,VWS V14.00,2013-03-24 22:52:00,
2013-03-24 16:54:00,18.1,-2.6,0.00,SSE,156,4.9,6.3,39,0.00,,---,0.00,VWS V14.00,2013-03-24 22:54:00,
2013-03-24 16:55:00,18.1,-2.6,0.00,SE,133,4.9,4.9,39,0.00,,---,0.00,VWS V14.00,2013-03-24 22:55:00,
2013-03-24 16:57:00,18.1,-2.1,0.00,South,183,0.0,4.0,40,0.00,,---,0.00,VWS V14.00,2013-03-24 22:57:00,
2013-03-24 16:59:00,18.1,-2.1,0.00,SSW,199,0.0,3.6,40,0.00,,---,0.00,VWS V14.00,2013-03-24 22:59:00,
2013-03-24 17:00:00,18.1,-2.1,0.00,SW,216,0.0,0.0,40,0.00,,---,0.00,VWS V14.00,2013-03-24 23:00:00,
2013-03-24 17:02:00,18.1,-2.1,0.00,SW,220,0.0,2.7,40,0.00,,---,0.00,VWS V14.00,2013-03-24 23:02:00,
2013-03-24 17:04:00,18.0,-2.8,0.00,SSW,209,0.0,3.1,39,0.00,,---,0.00,VWS V14.00,2013-03-24 23:04:00,
2013-03-24 17:05:00,17.8,-3.0,0.00,SW,223,3.1,3.1,39,0.00,,---,0.00,VWS V14.00,2013-03-24 23:05:00,
2013-03-24 17:07:00,17.6,-3.1,0.00,SW,221,2.7,4.0,39,0.00,,---,0.00,VWS V14.00,2013-03-24 23:07:00,
2013-03-24 17:09:00,17.4,-3.3,0.00,SW,219,3.6,4.5,39,0.00,,---,0.00,VWS V14.00,2013-03-24 23:09:00,
2013-03-24 17:10:00,17.4,-3.3,0.00,SW,233,2.2,3.1,39,0.00,,---,0.00,VWS V14.00,2013-03-24 23:10:00,
2013-03-24 17:12:00,17.2,-3.5,0.00,SSW,207,0.0,0.0,39,0.00,,---,0.00,VWS V14.00,2013-03-24 23:12:00,
2013-03-24 17:14:00,17.1,-3.6,0.00,SW,214,0.0,5.8,39,0.00,,---,0.00,VWS V14.00,2013-03-24 23:14:00,
2013-03-24 17:15:00,17.1,-3.6,0.00,SSW,205,0.0,0.0,39,0.00,,---,0.00,VWS V14.00,2013-03-24 23:15:00,
2013-03-24 17:17:00,17.1,-3.6,0.00,ESE,103,0.0,3.1,39,0.00,,---,0.00,VWS V14.00,2013-03-24 23:17:00,
2013-03-24 17:19:00,17.1,-3.6,0.00,East,100,2.7,2.7,39,0.00,,---,0.00,VWS V14.00,2013-03-24 23:19:00,
2013-03-24 17:20:00,17.1,-3.6,0.00,East,87,0.0,2.7,39,0.00,,---,0.00,VWS V14.00,2013-03-24 23:20:00,
2013-03-24 17:22:00,17.1,-3.6,0.00,ESE,109,3.1,4.0,39,0.00,,---,0.00,VWS V14.00,2013-03-24 23:22:00,
2013-03-24 17:24:00,17.1,-3.6,0.00,SSE,149,3.6,5.4,39,0.00,,---,0.00,VWS V14.00,2013-03-24 23:24:00,
2013-03-24 17:25:00,17.1,-3.6,0.00,SSE,148,3.6,3.6,39,0.00,,---,0.00,VWS V14.00,2013-03-24 23:25:00,
2013-03-24 17:27:00,17.2,-3.5,0.00,SSE,163,0.0,0.0,39,0.00,,---,0.00,VWS V14.00,2013-03-24 23:27:00,
2013-03-24 17:29:00,17.1,-3.6,0.00,SE,133,4.0,4.0,39,0.00,,---,0.00,VWS V14.00,2013-03-24 23:29:00,
2013-03-24 17:30:00,17.1,-3.6,0.00,SSE,148,2.7,2.7,39,0.00,,---,0.00,VWS V14.00,2013-03-24 23:30:00,
2013-03-24 17:33:00,16.9,-3.8,0.00,SSW,195,0.0,4.9,39,0.00,,---,0.00,VWS V14.00,2013-03-24 23:33:00,
2013-03-24 17:34:00,16.7,-3.9,0.00,South,179,2.7,2.7,39,0.00,,---,0.00,VWS V14.00,2013-03-24 23:34:00,
2013-03-24 17:35:00,16.7,-3.9,0.00,SSW,213,0.0,2.2,39,0.00,,---,0.00,VWS V14.00,2013-03-24 23:35:00,
2013-03-24 17:38:00,16.7,-3.9,0.00,SW,214,0.0,6.3,39,0.00,,---,0.00,VWS V14.00,2013-03-24 23:38:00,
2013-03-24 17:39:00,16.7,-3.9,0.00,ESE,115,3.6,5.4,39,0.00,,---,0.00,VWS V14.00,2013-03-24 23:39:00,
2013-03-24 17:40:00,16.7,-3.9,0.00,ESE,112,2.2,3.6,39,0.00,,---,0.00,VWS V14.00,2013-03-24 23:40:00,
2013-03-24 17:43:00,16.7,-3.9,0.00,SSE,151,2.2,2.2,39,0.00,,---,0.00,VWS V14.00,2013-03-24 23:43:00,
2013-03-24 17:44:00,16.7,-3.9,0.00,SSE,167,0.0,0.0,39,0.00,,---,0.00,VWS V14.00,2013-03-24 23:44:00,
2013-03-24 17:45:00,16.7,-3.9,0.00,SSE,168,0.0,3.1,39,0.00,,---,0.00,VWS V14.00,2013-03-24 23:45:00,
2013-03-24 17:48:00,16.7,-3.9,0.00,SSE,154,0.0,4.0,39,0.00,,---,0.00,VWS V14.00,2013-03-24 23:48:00,
2013-03-24 17:49:00,16.7,-3.9,0.00,ESE,103,4.9,4.9,39,0.00,,---,0.00,VWS V14.00,2013-03-24 23:49:00,
2013-03-24 17:50:00,16.7,-3.9,0.00,South,183,0.0,4.0,39,0.00,,---,0.00,VWS V14.00,2013-03-24 23:50:00,
2013-03-24 17:53:00,16.5,-4.1,0.00,ESE,111,3.6,6.3,39,0.00,,---,0.00,VWS V14.00,2013-03-24 23:53:00,
2013-03-24 17:54:00,16.5,-4.1,0.00,ESE,121,4.0,4.0,39,0.00,,---,0.00,VWS V14.00,2013-03-24 23:54:00,
2013-03-24 17:56:00,16.5,-4.1,0.00,East,99,4.0,8.3,39,0.00,,---,0.00,VWS V14.00,2013-03-24 23:56:00,
2013-03-24 17:58:00,16.5,-4.7,0.00,SW,222,0.0,4.0,38,0.00,,---,0.00,VWS V14.00,2013-03-24 23:58:00,
2013-03-24 17:59:00,16.5,-4.7,0.00,SE,135,2.2,3.6,38,0.00,,---,0.00,VWS V14.00,2013-03-24 23:59:00,
2013-03-24 18:01:00,16.5,-4.7,0.00,ESE,119,2.7,4.0,38,0.00,,---,0.00,VWS V14.00,2013-03-25 00:01:00,
2013-03-24 18:03:00,16.5,-4.7,0.00,SE,128,4.0,4.0,38,0.00,,---,0.00,VWS V14.00,2013-03-25 00:03:00,
2013-03-24 18:04:00,16.5,-4.7,0.00,SE,130,2.2,2.7,38,0.00,,---,0.00,VWS V14.00,2013-03-25 00:04:00,
2013-03-24 18:06:00,16.3,-4.8,0.00,ESE,110,6.3,6.3,38,0.00,,---,0.00,VWS V14.00,2013-03-25 00:06:00,
2013-03-24 18:08:00,16.3,-4.8,0.00,ESE,106,5.4,5.8,38,0.00,,---,0.00,VWS V14.00,2013-03-25 00:08:00,
2013-03-24 18:09:00,16.2,-5.0,0.00,SE,146,3.6,4.5,38,0.00,,---,0.00,VWS V14.00,2013-03-25 00:09:00,
2013-03-24 18:11:00,16.2,-5.0,0.00,ESE,123,5.4,5.8,38,0.00,,---,0.00,VWS V14.00,2013-03-25 00:11:00,
2013-03-24 18:13:00,16.2,-5.0,0.00,East,93,3.6,6.3,38,0.00,,---,0.00,VWS V14.00,2013-03-25 00:13:00,
2013-03-24 18:15:00,16.2,-5.0,0.00,SE,126,3.6,5.4,38,0.00,,---,0.00,VWS V14.00,2013-03-25 00:15:00,
2013-03-24 18:17:00,16.0,-5.1,0.00,ESE,113,4.0,4.9,38,0.00,,---,0.00,VWS V14.00,2013-03-25 00:17:00,
2013-03-24 18:18:00,16.0,-5.1,0.00,ESE,122,7.6,7.6,38,0.00,,---,0.00,VWS V14.00,2013-03-25 00:18:00,
2013-03-24 18:19:00,16.0,-5.1,0.00,East,92,5.8,7.6,38,0.00,,---,0.00,VWS V14.00,2013-03-25 00:19:00,
2013-03-24 18:20:00,15.8,-5.3,0.00,SE,145,6.3,8.1,38,0.00,,---,0.00,VWS V14.00,2013-03-25 00:20:00,
2013-03-24 18:22:00,15.8,-5.3,0.00,SE,129,4.9,5.4,38,0.00,,---,0.00,VWS V14.00,2013-03-25 00:22:00,
2013-03-24 18:23:00,15.8,-5.3,0.00,East,100,3.6,3.6,38,0.00,,---,0.00,VWS V14.00,2013-03-25 00:23:00,
2013-03-24 18:24:00,15.6,-5.5,0.00,SE,130,3.1,3.6,38,0.00,,---,0.00,VWS V14.00,2013-03-25 00:24:00,
2013-03-24 18:25:00,15.6,-5.5,0.00,ESE,110,3.6,3.6,38,0.00,,---,0.00,VWS V14.00,2013-03-25 00:25:00,
2013-03-24 18:27:00,15.4,-5.6,0.00,East,86,2.2,4.0,38,0.00,,---,0.00,VWS V14.00,2013-03-25 00:27:00,
2013-03-24 18:28:00,15.4,-5.6,0.00,ESE,114,3.1,4.9,38,0.00,,---,0.00,VWS V14.00,2013-03-25 00:28:00,
2013-03-24 18:29:00,15.4,-5.6,0.00,ESE,104,3.1,4.9,38,0.00,,---,0.00,VWS V14.00,2013-03-25 00:29:00,
2013-03-24 18:30:00,15.4,-5.6,0.00,ESE,112,0.0,3.1,38,0.00,,---,0.00,VWS V14.00,2013-03-25 00:30:00,
2013-03-24 18:32:00,15.4,-5.6,0.00,ESE,119,2.7,2.7,38,0.00,,---,0.00,VWS V14.00,2013-03-25 00:32:00,
2013-03-24 18:33:00,15.3,-5.8,0.00,ESE,115,2.2,3.6,38,0.00,,---,0.00,VWS V14.00,2013-03-25 00:33:00,
2013-03-24 18:34:00,15.3,-5.8,0.00,ESE,115,0.0,0.0,38,0.00,,---,0.00,VWS V14.00,2013-03-25 00:34:00,
2013-03-24 18:35:00,15.3,-5.8,0.00,ESE,118,0.0,0.0,38,0.00,,---,0.00,VWS V14.00,2013-03-25 00:35:00,
2013-03-24 18:37:00,15.3,-5.8,0.00,East,97,2.7,2.7,38,0.00,,---,0.00,VWS V14.00,2013-03-25 00:37:00,
2013-03-24 18:38:00,15.3,-5.8,0.00,East,98,2.2,3.6,38,0.00,,---,0.00,VWS V14.00,2013-03-25 00:38:00,
2013-03-24 18:39:00,15.3,-5.8,0.00,East,98,0.0,0.0,38,0.00,,---,0.00,VWS V14.00,2013-03-25 00:39:00,
2013-03-24 18:40:00,15.1,-5.9,0.00,ESE,113,2.7,2.7,38,0.00,,---,0.00,VWS V14.00,2013-03-25 00:40:00,
2013-03-24 18:42:00,15.1,-5.9,0.00,East,93,0.0,0.0,38,0.00,,---,0.00,VWS V14.00,2013-03-25 00:42:00,
2013-03-24 18:44:00,15.1,-5.9,0.00,ESE,113,0.0,0.0,38,0.00,,---,0.00,VWS V14.00,2013-03-25 00:44:00,
2013-03-24 18:45:00,14.9,-6.1,0.00,ESE,113,3.6,3.6,38,0.00,,---,0.00,VWS V14.00,2013-03-25 00:45:00,
2013-03-24 18:47:00,14.9,-6.1,0.00,South,178,0.0,0.0,38,0.00,,---,0.00,VWS V14.00,2013-03-25 00:47:00,
2013-03-24 18:49:00,14.9,-6.1,0.00,ESE,118,2.2,2.7,38,0.00,,---,0.00,VWS V14.00,2013-03-25 00:49:00,
2013-03-24 18:50:00,14.7,-6.3,0.00,ESE,116,2.7,3.1,38,0.00,,---,0.00,VWS V14.00,2013-03-25 00:50:00,
2013-03-24 18:52:00,14.5,-6.4,0.00,SE,125,0.0,0.0,38,0.00,,---,0.00,VWS V14.00,2013-03-25 00:52:00,
2013-03-24 18:54:00,14.5,-6.4,0.00,SE,125,0.0,0.0,38,0.00,,---,0.00,VWS V14.00,2013-03-25 00:54:00,
2013-03-24 18:55:00,14.5,-6.4,0.00,ESE,106,3.1,3.1,38,0.00,,---,0.00,VWS V14.00,2013-03-25 00:55:00,
2013-03-24 18:57:00,14.4,-6.6,0.00,ESE,123,0.0,0.0,38,0.00,,---,0.00,VWS V14.00,2013-03-25 00:57:00,
2013-03-24 18:59:00,14.2,-6.8,0.00,South,187,0.0,0.0,38,0.00,,---,0.00,VWS V14.00,2013-03-25 00:59:00,
2013-03-24 19:00:00,14.2,-6.8,0.00,SSE,152,3.1,3.1,38,0.00,,---,0.00,VWS V14.00,2013-03-25 01:00:00,
2013-03-24 19:03:00,14.0,-6.9,0.00,SSE,152,0.0,0.0,38,0.00,,---,0.00,VWS V14.00,2013-03-25 01:03:00,
2013-03-24 19:04:00,14.0,-6.9,0.00,SE,126,0.0,0.0,38,0.00,,---,0.00,VWS V14.00,2013-03-25 01:04:00,
2013-03-24 19:06:00,14.0,-6.9,0.00,SE,124,2.7,2.7,38,0.00,,---,0.00,VWS V14.00,2013-03-25 01:06:00,
2013-03-24 19:07:00,13.8,-7.1,0.00,ESE,121,0.0,0.0,38,0.00,,---,0.00,VWS V14.00,2013-03-25 01:07:00,
2013-03-24 19:09:00,13.8,-7.1,0.00,ESE,121,0.0,0.0,38,0.00,,---,0.00,VWS V14.00,2013-03-25 01:09:00,
2013-03-24 19:10:00,13.8,-7.1,0.00,ESE,121,0.0,0.0,38,0.00,,---,0.00,VWS V14.00,2013-03-25 01:10:00,
2013-03-24 19:11:00,13.8,-7.1,0.00,ESE,121,0.0,0.0,38,0.00,,---,0.00,VWS V14.00,2013-03-25 01:11:00,
2013-03-24 19:13:00,13.6,-7.2,0.00,ESE,121,0.0,0.0,38,0.00,,---,0.00,VWS V14.00,2013-03-25 01:13:00,
2013-03-24 19:14:00,13.6,-7.2,0.00,ESE,121,0.0,0.0,38,0.00,,---,0.00,VWS V14.00,2013-03-25 01:14:00,
2013-03-24 19:15:00,13.6,-7.2,0.00,ESE,121,0.0,0.0,38,0.00,,---,0.00,VWS V14.00,2013-03-25 01:15:00,
2013-03-24 19:16:00,13.5,-7.4,0.00,ESE,121,0.0,0.0,38,0.00,,---,0.00,VWS V14.00,2013-03-25 01:16:00,
2013-03-24 19:18:00,13.5,-7.4,0.00,ESE,121,0.0,0.0,38,0.00,,---,0.00,VWS V14.00,2013-03-25 01:18:00,
2013-03-24 19:19:00,13.3,-7.6,0.00,ESE,121,0.0,0.0,38,0.00,,---,0.00,VWS V14.00,2013-03-25 01:19:00,
2013-03-24 19:20:00,13.3,-7.6,0.00,ESE,121,0.0,0.0,38,0.00,,---,0.00,VWS V14.00,2013-03-25 01:20:00,
2013-03-24 19:21:00,13.3,-7.6,0.00,ESE,121,0.0,0.0,38,0.00,,---,0.00,VWS V14.00,2013-03-25 01:21:00,
2013-03-24 19:23:00,13.1,-7.7,0.00,ESE,121,0.0,0.0,38,0.00,,---,0.00,VWS V14.00,2013-03-25 01:23:00,
2013-03-24 19:24:00,13.1,-7.7,0.00,ESE,121,0.0,0.0,38,0.00,,---,0.00,VWS V14.00,2013-03-25 01:24:00,
2013-03-24 19:25:00,12.9,-7.9,0.00,ESE,121,0.0,0.0,38,0.00,,---,0.00,VWS V14.00,2013-03-25 01:25:00,
2013-03-24 19:26:00,12.9,-7.9,0.00,ESE,121,0.0,0.0,38,0.00,,---,0.00,VWS V14.00,2013-03-25 01:26:00,
2013-03-24 19:28:00,12.9,-7.9,0.00,ESE,121,0.0,0.0,38,0.00,,---,0.00,VWS V14.00,2013-03-25 01:28:00,
2013-03-24 19:29:00,12.9,-7.9,0.00,ESE,121,0.0,0.0,38,0.00,,---,0.00,VWS V14.00,2013-03-25 01:29:00,
2013-03-24 19:30:00,12.7,-8.1,0.00,ESE,121,0.0,0.0,38,0.00,,---,0.00,VWS V14.00,2013-03-25 01:30:00,
2013-03-24 19:31:00,12.7,-8.1,0.00,ESE,121,0.0,0.0,38,0.00,,---,0.00,VWS V14.00,2013-03-25 01:31:00,
2013-03-24 19:33:00,12.6,-8.2,0.00,SE,146,0.0,0.0,38,0.00,,---,0.00,VWS V14.00,2013-03-25 01:33:00,
2013-03-24 19:34:00,12.6,-8.2,0.00,SSE,153,0.0,0.0,38,0.00,,---,0.00,VWS V14.00,2013-03-25 01:34:00,
2013-03-24 19:35:00,12.6,-8.2,0.00,SSE,153,0.0,0.0,38,0.00,,---,0.00,VWS V14.00,2013-03-25 01:35:00,
2013-03-24 19:36:00,12.2,-8.5,0.00,SSE,155,0.0,0.0,38,0.00,,---,0.00,VWS V14.00,2013-03-25 01:36:00,
2013-03-24 19:38:00,12.2,-8.5,0.00,SSE,155,0.0,0.0,38,0.00,,---,0.00,VWS V14.00,2013-03-25 01:38:00,
2013-03-24 19:39:00,12.2,-8.5,0.00,SE,146,0.0,0.0,38,0.00,,---,0.00,VWS V14.00,2013-03-25 01:39:00,
2013-03-24 19:40:00,12.0,-8.7,0.00,SE,146,2.2,2.2,38,0.00,,---,0.00,VWS V14.00,2013-03-25 01:40:00,
2013-03-24 19:42:00,12.0,-8.7,0.00,SSE,153,0.0,0.0,38,0.00,,---,0.00,VWS V14.00,2013-03-25 01:42:00,
2013-03-24 19:43:00,12.0,-8.7,0.00,SSE,153,0.0,0.0,38,0.00,,---,0.00,VWS V14.00,2013-03-25 01:43:00,
2013-03-24 19:44:00,11.8,-8.9,0.00,SSW,199,0.0,0.0,38,0.00,,---,0.00,VWS V14.00,2013-03-25 01:44:00,
2013-03-24 19:45:00,11.8,-8.9,0.00,South,184,0.0,0.0,38,0.00,,---,0.00,VWS V14.00,2013-03-25 01:45:00,
2013-03-24 19:47:00,11.7,-9.0,0.00,SSW,194,4.9,4.9,38,0.00,,---,0.00,VWS V14.00,2013-03-25 01:47:00,
2013-03-24 19:48:00,11.7,-9.0,0.00,SSW,212,0.0,0.0,38,0.00,,---,0.00,VWS V14.00,2013-03-25 01:48:00,
2013-03-24 19:50:00,11.5,-9.2,0.00,SSW,212,0.0,0.0,38,0.00,,---,0.00,VWS V14.00,2013-03-25 01:50:00,
2013-03-24 19:52:00,11.5,-9.2,0.00,SSW,212,0.0,0.0,38,0.00,,---,0.00,VWS V14.00,2013-03-25 01:52:00,
2013-03-24 19:53:00,11.3,-9.4,0.00,WSW,240,0.0,0.0,38,0.00,,---,0.00,VWS V14.00,2013-03-25 01:53:00,
2013-03-24 19:55:00,11.3,-9.4,0.00,East,88,3.6,5.4,38,0.00,,---,0.00,VWS V14.00,2013-03-25 01:55:00,
2013-03-24 19:57:00,11.1,-9.5,0.00,SE,136,0.0,0.0,38,0.00,,---,0.00,VWS V14.00,2013-03-25 01:57:00,
2013-03-24 19:58:00,11.1,-9.5,0.00,South,176,0.0,0.0,38,0.00,,---,0.00,VWS V14.00,2013-03-25 01:58:00,
2013-03-24 20:00:00,11.1,-9.5,0.00,South,178,0.0,0.0,38,0.00,,---,0.00,VWS V14.00,2013-03-25 02:00:00,
2013-03-24 20:02:00,10.9,-9.7,0.00,South,178,0.0,0.0,38,0.00,,---,0.00,VWS V14.00,2013-03-25 02:02:00,
2013-03-24 20:03:00,10.9,-9.7,0.00,South,177,0.0,0.0,38,0.00,,---,0.00,VWS V14.00,2013-03-25 02:03:00,
2013-03-24 20:05:00,10.9,-9.7,0.00,ESE,103,0.0,4.9,38,0.00,,---,0.00,VWS V14.00,2013-03-25 02:05:00,
2013-03-24 20:06:00,10.8,-9.8,0.00,ESE,103,0.0,0.0,38,0.00,,---,0.00,VWS V14.00,2013-03-25 02:06:00,
2013-03-24 20:08:00,10.8,-9.8,0.00,ESE,104,0.0,0.0,38,0.00,,---,0.00,VWS V14.00,2013-03-25 02:08:00,
2013-03-24 20:09:00,10.8,-9.8,0.00,ESE,104,0.0,0.0,38,0.00,,---,0.00,VWS V14.00,2013-03-25 02:09:00,
2013-03-24 20:10:00,10.8,-9.8,0.00,ESE,104,0.0,0.0,38,0.00,,---,0.00,VWS V14.00,2013-03-25 02:10:00,
2013-03-24 20:11:00,10.6,-10.0,0.00,ESE,104,0.0,0.0,38,0.00,,---,0.00,VWS V14.00,2013-03-25 02:11:00,
2013-03-24 20:13:00,10.4,-10.2,0.00,ESE,104,0.0,0.0,38,0.00,,---,0.00,VWS V14.00,2013-03-25 02:13:00,
2013-03-24 20:14:00,10.4,-10.2,0.00,ESE,104,0.0,0.0,38,0.00,,---,0.00,VWS V14.00,2013-03-25 02:14:00,
2013-03-24 20:15:00,10.4,-10.2,0.00,ESE,104,0.0,0.0,38,0.00,,---,0.00,VWS V14.00,2013-03-25 02:15:00,
2013-03-24 20:16:00,10.4,-10.2,0.00,ESE,104,0.0,0.0,38,0.00,,---,0.00,VWS V14.00,2013-03-25 02:16:00,
2013-03-24 20:18:00,10.2,-10.3,0.00,ESE,104,0.0,0.0,38,0.00,,---,0.00,VWS V14.00,2013-03-25 02:18:00,
2013-03-24 20:19:00,10.2,-10.3,0.00,ESE,104,0.0,0.0,38,0.00,,---,0.00,VWS V14.00,2013-03-25 02:19:00,
2013-03-24 20:20:00,10.0,-10.5,0.00,ESE,104,0.0,0.0,38,0.00,,---,0.00,VWS V14.00,2013-03-25 02:20:00,
2013-03-24 20:22:00,10.0,-10.5,0.00,ESE,104,0.0,0.0,38,0.00,,---,0.00,VWS V14.00,2013-03-25 02:22:00,
2013-03-24 20:23:00,10.0,-10.5,0.00,ESE,104,0.0,0.0,38,0.00,,---,0.00,VWS V14.00,2013-03-25 02:23:00,
2013-03-24 20:24:00,9.9,-10.7,0.00,ESE,104,0.0,0.0,38,0.00,,---,0.00,VWS V14.00,2013-03-25 02:24:00,
2013-03-24 20:26:00,9.7,-10.8,0.00,ESE,104,0.0,0.0,38,0.00,,---,0.00,VWS V14.00,2013-03-25 02:26:00,
2013-03-24 20:27:00,9.7,-10.8,0.00,ESE,104,0.0,0.0,38,0.00,,---,0.00,VWS V14.00,2013-03-25 02:27:00,
2013-03-24 20:28:00,9.7,-10.8,0.00,ESE,104,0.0,0.0,38,0.00,,---,0.00,VWS V14.00,2013-03-25 02:28:00,
2013-03-24 20:29:00,9.5,-11.0,0.00,ESE,104,0.0,0.0,38,0.00,,---,0.00,VWS V14.00,2013-03-25 02:29:00,
2013-03-24 20:31:00,9.5,-11.0,0.00,ESE,104,0.0,0.0,38,0.00,,---,0.00,VWS V14.00,2013-03-25 02:31:00,
2013-03-24 20:32:00,9.5,-11.0,0.00,ESE,104,0.0,0.0,38,0.00,,---,0.00,VWS V14.00,2013-03-25 02:32:00,
2013-03-24 20:33:00,9.3,-11.1,0.00,ESE,104,0.0,0.0,38,0.00,,---,0.00,VWS V14.00,2013-03-25 02:33:00,
2013-03-24 20:34:00,9.3,-11.1,0.00,ESE,104,0.0,0.0,38,0.00,,---,0.00,VWS V14.00,2013-03-25 02:34:00,
2013-03-24 20:37:00,9.1,-11.3,0.00,ESE,104,0.0,0.0,38,0.00,,---,0.00,VWS V14.00,2013-03-25 02:37:00,
2013-03-24 20:38:00,9.1,-11.3,0.00,ESE,104,0.0,0.0,38,0.00,,---,0.00,VWS V14.00,2013-03-25 02:38:00,
2013-03-24 20:39:00,9.1,-11.3,0.00,ESE,104,0.0,0.0,38,0.00,,---,0.00,VWS V14.00,2013-03-25 02:39:00,
2013-03-24 20:42:00,9.0,-11.5,0.00,ESE,104,0.0,0.0,38,0.00,,---,0.00,VWS V14.00,2013-03-25 02:42:00,
2013-03-24 20:43:00,9.0,-11.5,0.00,ESE,104,0.0,0.0,38,0.00,,---,0.00,VWS V14.00,2013-03-25 02:43:00,
2013-03-24 20:44:00,8.8,-11.6,0.00,ESE,104,0.0,0.0,38,0.00,,---,0.00,VWS V14.00,2013-03-25 02:44:00,
2013-03-24 20:47:00,8.8,-11.6,0.00,ESE,104,0.0,0.0,38,0.00,,---,0.00,VWS V14.00,2013-03-25 02:47:00,
2013-03-24 20:48:00,8.6,-11.8,0.00,ESE,104,0.0,0.0,38,0.00,,---,0.00,VWS V14.00,2013-03-25 02:48:00,
2013-03-24 20:49:00,8.6,-11.8,0.00,ESE,104,0.0,0.0,38,0.00,,---,0.00,VWS V14.00,2013-03-25 02:49:00,
2013-03-24 20:52:00,8.4,-12.0,0.00,ESE,104,0.0,0.0,38,0.00,,---,0.00,VWS V14.00,2013-03-25 02:52:00,
2013-03-24 20:53:00,8.4,-12.0,0.00,ESE,104,0.0,0.0,38,0.00,,---,0.00,VWS V14.00,2013-03-25 02:53:00,
2013-03-24 20:54:00,8.4,-12.0,0.00,ESE,104,0.0,0.0,38,0.00,,---,0.00,VWS V14.00,2013-03-25 02:54:00,
2013-03-24 20:57:00,8.2,-12.1,0.00,ESE,104,0.0,0.0,38,0.00,,---,0.00,VWS V14.00,2013-03-25 02:57:00,
2013-03-24 20:58:00,8.1,-12.3,0.00,ESE,104,0.0,0.0,38,0.00,,---,0.00,VWS V14.00,2013-03-25 02:58:00,
2013-03-24 20:59:00,8.1,-12.3,0.00,ESE,104,0.0,0.0,38,0.00,,---,0.00,VWS V14.00,2013-03-25 02:59:00,
2013-03-24 21:02:00,8.1,-12.3,0.00,ESE,104,0.0,0.0,38,0.00,,---,0.00,VWS V14.00,2013-03-25 03:02:00,
2013-03-24 21:03:00,8.1,-12.3,0.00,ESE,104,0.0,0.0,38,0.00,,---,0.00,VWS V14.00,2013-03-25 03:03:00,
2013-03-24 21:04:00,8.1,-12.3,0.00,ESE,104,0.0,0.0,38,0.00,,---,0.00,VWS V14.00,2013-03-25 03:04:00,
2013-03-24 21:07:00,7.9,-12.4,0.00,WNW,290,3.1,3.1,38,0.00,,---,0.00,VWS V14.00,2013-03-25 03:07:00,
2013-03-24 21:08:00,7.9,-12.4,0.00,SW,224,2.7,2.7,38,0.00,,---,0.00,VWS V14.00,2013-03-25 03:08:00,
2013-03-24 21:09:00,7.9,-12.4,0.00,SW,220,0.0,0.0,38,0.00,,---,0.00,VWS V14.00,2013-03-25 03:09:00,
2013-03-24 21:13:00,7.7,-12.6,0.00,SE,127,0.0,0.0,38,0.00,,---,0.00,VWS V14.00,2013-03-25 03:13:00,
2013-03-24 21:14:00,7.7,-12.6,0.00,South,174,0.0,0.0,38,0.00,,---,0.00,VWS V14.00,2013-03-25 03:14:00,
2013-03-24 21:15:00,7.7,-12.6,0.00,South,174,0.0,0.0,38,0.00,,---,0.00,VWS V14.00,2013-03-25 03:15:00,
2013-03-24 21:18:00,7.5,-12.8,0.00,South,174,0.0,0.0,38,0.00,,---,0.00,VWS V14.00,2013-03-25 03:18:00,
2013-03-24 21:19:00,7.5,-12.8,0.00,South,174,0.0,0.0,38,0.00,,---,0.00,VWS V14.00,2013-03-25 03:19:00,
2013-03-24 21:20:00,7.5,-12.8,0.00,South,174,0.0,0.0,38,0.00,,---,0.00,VWS V14.00,2013-03-25 03:20:00,
2013-03-24 21:23:00,7.5,-12.8,0.00,South,169,0.0,2.2,38,0.00,,---,0.00,VWS V14.00,2013-03-25 03:23:00,
2013-03-24 21:24:00,7.5,-12.8,0.00,South,169,0.0,0.0,38,0.00,,---,0.00,VWS V14.00,2013-03-25 03:24:00,
2013-03-24 21:25:00,7.3,-12.9,0.00,South,169,0.0,0.0,38,0.00,,---,0.00,VWS V14.00,2013-03-25 03:25:00,
2013-03-24 21:28:00,7.2,-13.1,0.00,ESE,113,2.2,2.7,38,0.00,,---,0.00,VWS V14.00,2013-03-25 03:28:00,
2013-03-24 21:29:00,7.2,-13.1,0.00,ESE,112,0.0,0.0,38,0.00,,---,0.00,VWS V14.00,2013-03-25 03:29:00,
2013-03-24 21:30:00,7.2,-13.1,0.00,ESE,112,0.0,0.0,38,0.00,,---,0.00,VWS V14.00,2013-03-25 03:30:00,
2013-03-24 21:34:00,7.2,-13.1,0.00,ESE,116,0.0,0.0,38,0.00,,---,0.00,VWS V14.00,2013-03-25 03:34:00,
2013-03-24 21:35:00,7.2,-13.1,0.00,ESE,116,0.0,0.0,38,0.00,,---,0.00,VWS V14.00,2013-03-25 03:35:00,
2013-03-24 21:39:00,7.0,-13.3,0.00,ESE,115,0.0,2.7,38,0.00,,---,0.00,VWS V14.00,2013-03-25 03:39:00,
2013-03-24 21:40:00,7.0,-13.3,0.00,ESE,115,0.0,0.0,38,0.00,,---,0.00,VWS V14.00,2013-03-25 03:40:00,
2013-03-24 21:44:00,7.0,-13.3,0.00,ESE,102,3.6,3.6,38,0.00,,---,0.00,VWS V14.00,2013-03-25 03:44:00,
2013-03-24 21:45:00,6.8,-13.4,0.00,ESE,102,0.0,0.0,38,0.00,,---,0.00,VWS V14.00,2013-03-25 03:45:00,
2013-03-24 21:46:00,6.8,-13.4,0.00,ESE,103,0.0,0.0,38,0.00,,---,0.00,VWS V14.00,2013-03-25 03:46:00,
2013-03-24 21:49:00,6.8,-13.4,0.00,ESE,104,0.0,0.0,38,0.00,,---,0.00,VWS V14.00,2013-03-25 03:49:00,
2013-03-24 21:50:00,6.8,-13.4,0.00,ESE,104,0.0,0.0,38,0.00,,---,0.00,VWS V14.00,2013-03-25 03:50:00,
2013-03-24 21:51:00,6.8,-13.4,0.00,ESE,103,0.0,0.0,38,0.00,,---,0.00,VWS V14.00,2013-03-25 03:51:00,
2013-03-24 21:54:00,6.6,-13.6,0.00,ESE,103,2.7,2.7,38,0.00,,---,0.00,VWS V14.00,2013-03-25 03:54:00,
2013-03-24 21:55:00,6.6,-13.6,0.00,ESE,103,0.0,4.0,38,0.00,,---,0.00,VWS V14.00,2013-03-25 03:55:00,
2013-03-24 21:56:00,6.6,-13.6,0.00,ESE,103,0.0,2.2,38,0.00,,---,0.00,VWS V14.00,2013-03-25 03:56:00,
2013-03-24 21:59:00,6.4,-13.7,0.00,ESE,103,0.0,0.0,38,0.00,,---,0.00,VWS V14.00,2013-03-25 03:59:00,
2013-03-24 22:00:00,6.4,-13.7,0.00,ESE,105,0.0,0.0,38,0.00,,---,0.00,VWS V14.00,2013-03-25 04:00:00,
2013-03-24 22:05:00,6.4,-13.7,0.00,East,100,0.0,2.2,38,0.00,,---,0.00,VWS V14.00,2013-03-25 04:05:00,
2013-03-24 22:10:00,6.3,-13.9,0.00,SE,124,0.0,0.0,38,0.00,,---,0.00,VWS V14.00,2013-03-25 04:10:00,
2013-03-24 22:15:00,6.3,-13.9,0.00,SE,125,0.0,0.0,38,0.00,,---,0.00,VWS V14.00,2013-03-25 04:15:00,
2013-03-24 22:20:00,6.1,-14.1,0.00,SE,125,0.0,0.0,38,0.00,,---,0.00,VWS V14.00,2013-03-25 04:20:00,
2013-03-24 22:25:00,5.9,-14.2,0.00,East,92,0.0,0.0,38,0.00,,---,0.00,VWS V14.00,2013-03-25 04:25:00,
2013-03-24 22:30:00,5.7,-14.4,0.00,East,92,0.0,0.0,38,0.00,,---,0.00,VWS V14.00,2013-03-25 04:30:00,
2013-03-24 22:35:00,5.5,-14.6,0.00,East,92,0.0,0.0,38,0.00,,---,0.00,VWS V14.00,2013-03-25 04:35:00,
2013-03-24 22:36:00,5.5,-14.6,0.00,East,92,0.0,0.0,38,0.00,,---,0.00,VWS V14.00,2013-03-25 04:36:00,
2013-03-24 22:40:00,5.4,-14.7,0.00,East,93,0.0,0.0,38,0.00,,---,0.00,VWS V14.00,2013-03-25 04:40:00,
2013-03-24 22:41:00,5.4,-14.7,0.00,East,93,0.0,0.0,38,0.00,,---,0.00,VWS V14.00,2013-03-25 04:41:00,
2013-03-24 22:45:00,5.2,-14.9,0.00,East,93,0.0,0.0,38,0.00,,---,0.00,VWS V14.00,2013-03-25 04:45:00,
2013-03-24 22:46:00,5.0,-15.1,0.00,East,93,0.0,0.0,38,0.00,,---,0.00,VWS V14.00,2013-03-25 04:46:00,
2013-03-24 22:47:00,5.0,-15.1,0.00,East,93,0.0,0.0,38,0.00,,---,0.00,VWS V14.00,2013-03-25 04:47:00,
2013-03-24 22:50:00,5.0,-15.1,0.00,East,93,0.0,0.0,38,0.00,,---,0.00,VWS V14.00,2013-03-25 04:50:00,
2013-03-24 22:51:00,5.0,-15.1,0.00,East,93,0.0,0.0,38,0.00,,---,0.00,VWS V14.00,2013-03-25 04:51:00,
2013-03-24 22:52:00,5.0,-15.1,0.00,East,93,0.0,0.0,38,0.00,,---,0.00,VWS V14.00,2013-03-25 04:52:00,
2013-03-24 22:55:00,4.6,-15.4,0.00,East,93,0.0,0.0,38,0.00,,---,0.00,VWS V14.00,2013-03-25 04:55:00,
2013-03-24 22:56:00,4.6,-15.4,0.00,East,90,0.0,0.0,38,0.00,,---,0.00,VWS V14.00,2013-03-25 04:56:00,
2013-03-24 22:57:00,4.6,-15.4,0.00,East,93,0.0,0.0,38,0.00,,---,0.00,VWS V14.00,2013-03-25 04:57:00,
2013-03-24 23:00:00,4.5,-15.5,0.00,East,100,0.0,3.6,38,0.00,,---,0.00,VWS V14.00,2013-03-25 05:00:00,
2013-03-24 23:01:00,4.5,-15.5,0.00,East,100,0.0,0.0,38,0.00,,---,0.00,VWS V14.00,2013-03-25 05:01:00,
2013-03-24 23:02:00,4.5,-15.5,0.00,East,100,0.0,0.0,38,0.00,,---,0.00,VWS V14.00,2013-03-25 05:02:00,
2013-03-24 23:05:00,4.3,-15.7,0.00,East,100,0.0,0.0,38,0.00,,---,0.00,VWS V14.00,2013-03-25 05:05:00,
2013-03-24 23:07:00,4.3,-15.7,0.00,East,100,0.0,0.0,38,0.00,,---,0.00,VWS V14.00,2013-03-25 05:07:00,
2013-03-24 23:11:00,4.1,-15.9,0.00,East,96,0.0,0.0,38,0.00,,---,0.00,VWS V14.00,2013-03-25 05:11:00,
2013-03-24 23:12:00,4.1,-15.9,0.00,East,100,0.0,0.0,38,0.00,,---,0.00,VWS V14.00,2013-03-25 05:12:00,
2013-03-24 23:16:00,3.9,-16.0,0.00,East,94,0.0,0.0,38,0.00,,---,0.00,VWS V14.00,2013-03-25 05:16:00,
2013-03-24 23:17:00,3.7,-16.2,0.00,East,87,2.7,3.6,38,0.00,,---,0.00,VWS V14.00,2013-03-25 05:17:00,
2013-03-24 23:21:00,3.7,-16.2,0.00,SE,139,0.0,0.0,38,0.00,,---,0.00,VWS V14.00,2013-03-25 05:21:00,
2013-03-24 23:22:00,3.7,-16.2,0.00,SE,139,0.0,0.0,38,0.00,,---,0.00,VWS V14.00,2013-03-25 05:22:00,
2013-03-24 23:26:00,3.6,-16.4,0.00,SE,139,0.0,0.0,38,0.00,,---,0.00,VWS V14.00,2013-03-25 05:26:00,
2013-03-24 23:27:00,3.4,-16.5,0.00,SE,139,0.0,0.0,38,0.00,,---,0.00,VWS V14.00,2013-03-25 05:27:00,
2013-03-24 23:28:00,3.4,-16.5,0.00,SE,137,0.0,0.0,38,0.00,,---,0.00,VWS V14.00,2013-03-25 05:28:00,
2013-03-24 23:31:00,3.2,-16.7,0.00,SE,139,0.0,0.0,38,0.00,,---,0.00,VWS V14.00,2013-03-25 05:31:00,
2013-03-24 23:32:00,3.2,-16.7,0.00,SE,137,0.0,0.0,38,0.00,,---,0.00,VWS V14.00,2013-03-25 05:32:00,
2013-03-24 23:33:00,3.2,-16.7,0.00,SE,138,0.0,0.0,38,0.00,,---,0.00,VWS V14.00,2013-03-25 05:33:00,
2013-03-24 23:36:00,3.0,-16.8,0.00,West,278,2.7,2.7,38,0.00,,---,0.00,VWS V14.00,2013-03-25 05:36:00,
2013-03-24 23:37:00,2.8,-17.0,0.00,West,281,2.7,2.7,38,0.00,,---,0.00,VWS V14.00,2013-03-25 05:37:00,
2013-03-24 23:38:00,2.8,-17.0,0.00,WNW,283,2.7,2.7,38,0.00,,---,0.00,VWS V14.00,2013-03-25 05:38:00,
2013-03-24 23:41:00,2.8,-17.0,0.00,WSW,237,0.0,0.0,38,0.00,,---,0.00,VWS V14.00,2013-03-25 05:41:00,
2013-03-24 23:42:00,2.7,-17.2,0.00,WSW,237,0.0,0.0,38,0.00,,---,0.00,VWS V14.00,2013-03-25 05:42:00,
2013-03-24 23:43:00,2.7,-17.2,0.00,WSW,237,0.0,0.0,38,0.00,,---,0.00,VWS V14.00,2013-03-25 05:43:00,
2013-03-24 23:46:00,2.7,-17.2,0.00,WSW,245,0.0,0.0,38,0.00,,---,0.00,VWS V14.00,2013-03-25 05:46:00,
2013-03-24 23:48:00,2.5,-17.3,0.00,WSW,246,0.0,0.0,38,0.00,,---,0.00,VWS V14.00,2013-03-25 05:48:00,
2013-03-24 23:51:00,2.5,-17.3,0.00,WSW,245,0.0,0.0,38,0.00,,---,0.00,VWS V14.00,2013-03-25 05:51:00,
2013-03-24 23:53:00,2.5,-17.3,0.00,WSW,245,0.0,0.0,38,0.00,,---,0.00,VWS V14.00,2013-03-25 05:53:00,
2013-03-24 23:57:00,2.3,-17.5,0.00,WSW,246,0.0,0.0,38,0.00,,---,0.00,VWS V14.00,2013-03-25 05:57:00,
2013-03-24 23:58:00,2.3,-17.5,0.00,WSW,246,0.0,0.0,38,0.00,,---,0.00,VWS V14.00,2013-03-25 05:58:00,
2013-03-24 23:59:00,2.1,-17.6,0.00,WSW,244,0.0,0.0,38,0.00,,---,0.00,VWS V14.00,2013-03-25 05:59:00,